Time,TemperatureF,DewpointF,PressureIn,WindDirection,WindDirectionDegrees,WindSpeedMPH,WindSpeedGustMPH,Humidity,HourlyPrecipIn,Conditions,Clouds,dailyrainin,SoftwareType,DateUTC
2013-09-22 00:01:00,62.5,61.9,29.71,North,359,0.0,0.0,98,0.00,,,0.23,Wunderground v.1.15,2013-09-22 04:01:00,
2013-09-22 00:02:00,62.5,61.9,29.71,North,357,0.0,0.0,98,0.00,,,0.00,Wunderground v.1.15,2013-09-22 04:02:00,
2013-09-22 00:03:00,62.5,61.9,29.71,North,359,0.0,0.0,98,0.00,,,0.00,Wunderground v.1.15,2013-09-22 04:03:00,
2013-09-22 00:07:00,62.5,61.9,29.71,WNW,288,0.0,1.0,98,0.00,,,0.00,Wunderground v.1.15,2013-09-22 04:07:00,
2013-09-22 00:09:00,62.5,61.9,29.71,NNW,346,0.0,1.0,98,0.00,,,0.00,Wunderground v.1.15,2013-09-22 04:09:00,
2013-09-22 00:12:00,62.4,61.8,29.71,NNW,345,0.0,0.0,98,0.00,,,0.00,Wunderground v.1.15,2013-09-22 04:12:00,
2013-09-22 00:13:00,62.5,61.9,29.71,NNW,345,0.0,0.0,98,0.00,,,0.00,Wunderground v.1.15,2013-09-22 04:13:00,
2013-09-22 00:14:00,62.5,61.9,29.71,NNW,346,0.0,0.0,98,0.00,,,0.00,Wunderground v.1.15,2013-09-22 04:14:00,
2013-09-22 00:16:00,62.5,62.2,29.71,NNW,345,0.0,0.0,99,0.00,,,0.00,Wunderground v.1.15,2013-09-22 04:16:00,
2013-09-22 00:18:00,62.5,62.2,29.71,NNW,342,0.0,0.0,99,0.00,,,0.00,Wunderground v.1.15,2013-09-22 04:18:00,
2013-09-22 00:20:00,62.5,62.2,29.71,NNW,342,0.0,0.0,99,0.00,,,0.00,Wunderground v.1.15,2013-09-22 04:20:00,
2013-09-22 00:24:00,62.5,62.2,29.71,NE,52,0.0,0.0,99,0.00,,,0.00,Wunderground v.1.15,2013-09-22 04:24:00,
2013-09-22 00:25:00,62.6,62.3,29.71,NE,52,0.0,0.0,99,0.00,,,0.00,Wunderground v.1.15,2013-09-22 04:25:00,
2013-09-22 00:26:00,62.6,62.3,29.71,NE,53,0.0,0.0,99,0.00,,,0.00,Wunderground v.1.15,2013-09-22 04:26:00,
2013-09-22 00:29:00,62.6,62.3,29.71,NE,51,0.0,0.0,99,0.00,,,0.00,Wunderground v.1.15,2013-09-22 04:29:00,
2013-09-22 00:30:00,62.6,62.3,29.71,NNW,342,0.0,0.0,99,0.00,,,0.00,Wunderground v.1.15,2013-09-22 04:30:00,
2013-09-22 00:31:00,62.6,62.3,29.71,NNW,342,0.0,0.0,99,0.00,,,0.00,Wunderground v.1.15,2013-09-22 04:31:00,
2013-09-22 00:32:00,62.6,62.3,29.71,NE,35,0.0,0.0,99,0.00,,,0.00,Wunderground v.1.15,2013-09-22 04:32:00,
2013-09-22 00:35:00,62.7,62.4,29.71,NNE,33,1.0,1.0,99,0.00,,,0.00,Wunderground v.1.15,2013-09-22 04:35:00,
2013-09-22 00:36:00,62.6,62.3,29.71,NW,307,1.0,1.0,99,0.00,,,0.00,Wunderground v.1.15,2013-09-22 04:36:00,
2013-09-22 00:41:00,62.7,62.4,29.71,NE,39,0.0,1.0,99,0.00,,,0.00,Wunderground v.1.15,2013-09-22 04:41:00,
2013-09-22 00:43:00,62.8,62.5,29.71,NE,39,0.0,1.0,99,0.00,,,0.00,Wunderground v.1.15,2013-09-22 04:43:00,
2013-09-22 00:44:00,62.7,62.4,29.71,NE,39,0.0,1.0,99,0.00,,,0.00,Wunderground v.1.15,2013-09-22 04:44:00,
2013-09-22 00:46:00,62.7,62.4,29.71,NNE,14,0.0,1.0,99,0.00,,,0.00,Wunderground v.1.15,2013-09-22 04:46:00,
2013-09-22 00:49:00,62.7,62.4,29.71,North,6,2.0,2.0,99,0.00,,,0.00,Wunderground v.1.15,2013-09-22 04:49:00,
2013-09-22 00:50:00,62.7,62.4,29.71,North,5,0.0,0.0,99,0.00,,,0.00,Wunderground v.1.15,2013-09-22 04:50:00,
2013-09-22 00:54:00,62.8,62.5,29.71,NNE,16,0.0,0.0,99,0.00,,,0.00,Wunderground v.1.15,2013-09-22 04:54:00,
2013-09-22 00:55:00,62.7,62.4,29.71,NNE,15,0.0,0.0,99,0.00,,,0.00,Wunderground v.1.15,2013-09-22 04:55:00,
2013-09-22 00:57:00,62.7,62.4,29.71,NNE,18,0.0,0.0,99,0.00,,,0.00,Wunderground v.1.15,2013-09-22 04:57:00,
2013-09-22 01:00:00,62.8,62.5,29.71,NNE,15,0.0,0.0,99,0.00,,,0.00,Wunderground v.1.15,2013-09-22 05:00:00,
2013-09-22 01:01:00,62.8,62.5,29.71,NNE,15,0.0,0.0,99,0.00,,,0.00,Wunderground v.1.15,2013-09-22 05:01:00,
2013-09-22 01:03:00,62.8,62.5,29.71,NNE,15,0.0,0.0,99,0.00,,,0.00,Wunderground v.1.15,2013-09-22 05:03:00,
2013-09-22 01:07:00,62.8,62.5,29.71,NNE,14,0.0,0.0,99,0.00,,,0.00,Wunderground v.1.15,2013-09-22 05:07:00,
2013-09-22 01:08:00,62.8,62.5,29.71,NNE,14,0.0,0.0,99,0.00,,,0.00,Wunderground v.1.15,2013-09-22 05:08:00,
2013-09-22 01:13:00,62.8,62.5,29.71,NNE,14,0.0,0.0,99,0.00,,,0.00,Wunderground v.1.15,2013-09-22 05:13:00,
2013-09-22 01:14:00,62.8,62.5,29.71,NNE,15,0.0,0.0,99,0.00,,,0.00,Wunderground v.1.15,2013-09-22 05:14:00,
2013-09-22 01:15:00,62.8,62.5,29.71,NW,314,3.0,3.0,99,0.00,,,0.00,Wunderground v.1.15,2013-09-22 05:15:00,
2013-09-22 01:16:00,62.8,62.5,29.71,NNW,338,0.0,3.0,99,0.00,,,0.00,Wunderground v.1.15,2013-09-22 05:16:00,
2013-09-22 01:18:00,62.8,62.5,29.71,NNW,337,0.0,3.0,99,0.00,,,0.00,Wunderground v.1.15,2013-09-22 05:18:00,
2013-09-22 01:19:00,62.7,62.4,29.71,NNW,328,0.0,3.0,99,0.00,,,0.00,Wunderground v.1.15,2013-09-22 05:19:00,
2013-09-22 01:22:00,62.8,62.5,29.71,NNW,332,0.0,0.0,99,0.00,,,0.00,Wunderground v.1.15,2013-09-22 05:22:00,
2013-09-22 01:24:00,62.7,62.4,29.71,NNW,330,0.0,0.0,99,0.00,,,0.00,Wunderground v.1.15,2013-09-22 05:24:00,
2013-09-22 01:25:00,62.8,62.5,29.71,NNW,330,0.0,0.0,99,0.00,,,0.00,Wunderground v.1.15,2013-09-22 05:25:00,
2013-09-22 01:30:00,62.7,62.4,29.71,NNE,32,2.0,2.0,99,0.00,,,0.00,Wunderground v.1.15,2013-09-22 05:30:00,
2013-09-22 01:32:00,62.8,62.5,29.71,WNW,293,0.0,2.0,99,0.00,,,0.00,Wunderground v.1.15,2013-09-22 05:32:00,
2013-09-22 01:33:00,62.7,62.4,29.71,WNW,300,0.0,2.0,99,0.00,,,0.00,Wunderground v.1.15,2013-09-22 05:33:00,
2013-09-22 01:34:00,62.7,62.4,29.71,WNW,301,0.0,2.0,99,0.00,,,0.00,Wunderground v.1.15,2013-09-22 05:34:00,
2013-09-22 01:35:00,62.7,62.4,29.71,NNW,330,1.0,2.0,99,0.00,,,0.00,Wunderground v.1.15,2013-09-22 05:35:00,
2013-09-22 01:38:00,62.7,62.4,29.71,NW,304,0.0,2.0,99,0.00,,,0.00,Wunderground v.1.15,2013-09-22 05:38:00,
2013-09-22 01:41:00,62.7,62.4,29.71,North,8,0.0,3.0,99,0.00,,,0.00,Wunderground v.1.15,2013-09-22 05:41:00,
2013-09-22 01:43:00,62.7,62.4,29.71,NNW,342,2.0,3.0,99,0.00,,,0.00,Wunderground v.1.15,2013-09-22 05:43:00,
2013-09-22 01:44:00,62.7,62.4,29.71,North,359,0.0,3.0,99,0.00,,,0.00,Wunderground v.1.15,2013-09-22 05:44:00,
2013-09-22 01:46:00,62.7,62.4,29.71,North,359,0.0,3.0,99,0.00,,,0.00,Wunderground v.1.15,2013-09-22 05:46:00,
2013-09-22 01:48:00,62.6,62.3,29.71,North,360,0.0,3.0,99,0.00,,,0.00,Wunderground v.1.15,2013-09-22 05:48:00,
2013-09-22 01:53:00,62.5,62.2,29.72,NW,324,0.0,0.0,99,0.00,,,0.00,Wunderground v.1.15,2013-09-22 05:53:00,
2013-09-22 01:54:00,62.5,62.2,29.72,NW,324,0.0,0.0,99,0.00,,,0.00,Wunderground v.1.15,2013-09-22 05:54:00,
2013-09-22 01:56:00,62.5,62.2,29.71,NW,324,0.0,0.0,99,0.00,,,0.00,Wunderground v.1.15,2013-09-22 05:56:00,
2013-09-22 01:59:00,62.4,62.1,29.72,NNE,30,0.0,0.0,99,0.00,,,0.00,Wunderground v.1.15,2013-09-22 05:59:00,
2013-09-22 02:00:00,62.4,62.1,29.72,NW,310,1.0,1.0,99,0.00,,,0.00,Wunderground v.1.15,2013-09-22 06:00:00,
2013-09-22 02:01:00,62.4,62.1,29.72,NW,311,0.0,1.0,99,0.00,,,0.00,Wunderground v.1.15,2013-09-22 06:01:00,
2013-09-22 02:04:00,62.4,62.1,29.72,North,354,0.0,1.0,99,0.00,,,0.00,Wunderground v.1.15,2013-09-22 06:04:00,
2013-09-22 02:05:00,62.4,62.1,29.72,North,355,0.0,1.0,99,0.00,,,0.00,Wunderground v.1.15,2013-09-22 06:05:00,
2013-09-22 02:06:00,62.4,62.1,29.72,East,79,1.0,3.0,99,0.00,,,0.00,Wunderground v.1.15,2013-09-22 06:06:00,
2013-09-22 02:07:00,62.3,62.0,29.72,ENE,78,0.0,3.0,99,0.00,,,0.00,Wunderground v.1.15,2013-09-22 06:07:00,
2013-09-22 02:09:00,62.3,62.0,29.72,North,1,1.0,3.0,99,0.00,,,0.00,Wunderground v.1.15,2013-09-22 06:09:00,
2013-09-22 02:10:00,62.3,62.0,29.72,NE,36,0.0,0.0,99,0.00,,,0.00,Wunderground v.1.15,2013-09-22 06:10:00,
2013-09-22 02:12:00,62.3,62.0,29.72,ENE,68,0.0,2.0,99,0.00,,,0.00,Wunderground v.1.15,2013-09-22 06:12:00,
2013-09-22 02:14:00,62.3,62.0,29.72,ENE,68,0.0,2.0,99,0.00,,,0.00,Wunderground v.1.15,2013-09-22 06:14:00,
2013-09-22 02:15:00,62.3,62.0,29.72,NW,319,1.0,2.0,99,0.00,,,0.00,Wunderground v.1.15,2013-09-22 06:15:00,
2013-09-22 02:17:00,62.3,62.0,29.72,NNE,32,1.0,2.0,99,0.00,,,0.00,Wunderground v.1.15,2013-09-22 06:17:00,
2013-09-22 02:19:00,62.3,62.0,29.72,NNW,335,0.0,2.0,99,0.00,,,0.00,Wunderground v.1.15,2013-09-22 06:19:00,
2013-09-22 02:20:00,62.2,61.9,29.72,NW,308,0.0,2.0,99,0.00,,,0.00,Wunderground v.1.15,2013-09-22 06:20:00,
2013-09-22 02:22:00,62.2,61.9,29.72,NNW,346,1.0,2.0,99,0.00,,,0.00,Wunderground v.1.15,2013-09-22 06:22:00,
2013-09-22 02:23:00,62.2,61.9,29.72,West,281,1.0,2.0,99,0.00,,,0.00,Wunderground v.1.15,2013-09-22 06:23:00,
2013-09-22 02:24:00,62.1,61.8,29.72,WNW,284,0.0,2.0,99,0.00,,,0.00,Wunderground v.1.15,2013-09-22 06:24:00,
2013-09-22 02:25:00,62.1,61.8,29.72,NNE,14,2.0,2.0,99,0.00,,,0.00,Wunderground v.1.15,2013-09-22 06:25:00,
2013-09-22 02:28:00,62.1,61.8,29.72,North,356,0.0,2.0,99,0.00,,,0.00,Wunderground v.1.15,2013-09-22 06:28:00,
2013-09-22 02:29:00,62.0,61.7,29.72,North,357,0.0,2.0,99,0.00,,,0.00,Wunderground v.1.15,2013-09-22 06:29:00,
2013-09-22 02:30:00,62.0,61.7,29.72,North,357,0.0,0.0,99,0.00,,,0.00,Wunderground v.1.15,2013-09-22 06:30:00,
2013-09-22 02:33:00,61.9,61.6,29.72,NE,53,0.0,0.0,99,0.00,,,0.00,Wunderground v.1.15,2013-09-22 06:33:00,
2013-09-22 02:34:00,61.9,61.6,29.72,NE,53,0.0,0.0,99,0.00,,,0.00,Wunderground v.1.15,2013-09-22 06:34:00,
2013-09-22 02:36:00,61.9,61.6,29.72,ENE,61,0.0,0.0,99,0.00,,,0.00,Wunderground v.1.15,2013-09-22 06:36:00,
2013-09-22 02:38:00,61.8,61.5,29.72,SE,129,0.0,0.0,99,0.00,,,0.00,Wunderground v.1.15,2013-09-22 06:38:00,
2013-09-22 02:39:00,61.7,61.4,29.72,ESE,122,0.0,0.0,99,0.00,,,0.00,Wunderground v.1.15,2013-09-22 06:39:00,
2013-09-22 02:41:00,61.7,61.4,29.72,NNW,328,0.0,1.0,99,0.00,,,0.00,Wunderground v.1.15,2013-09-22 06:41:00,
2013-09-22 02:44:00,61.6,61.3,29.72,East,93,0.0,3.0,99,0.00,,,0.00,Wunderground v.1.15,2013-09-22 06:44:00,
2013-09-22 02:45:00,61.5,61.2,29.72,East,94,0.0,3.0,99,0.00,,,0.00,Wunderground v.1.15,2013-09-22 06:45:00,
2013-09-22 02:46:00,61.5,61.2,29.72,East,93,0.0,3.0,99,0.00,,,0.00,Wunderground v.1.15,2013-09-22 06:46:00,
2013-09-22 02:49:00,61.4,61.1,29.72,North,8,1.0,3.0,99,0.00,,,0.00,Wunderground v.1.15,2013-09-22 06:49:00,
2013-09-22 02:50:00,61.4,61.1,29.72,East,89,1.0,2.0,99,0.00,,,0.00,Wunderground v.1.15,2013-09-22 06:50:00,
2013-09-22 02:51:00,61.4,61.1,29.72,East,87,0.0,2.0,99,0.00,,,0.00,Wunderground v.1.15,2013-09-22 06:51:00,
2013-09-22 02:54:00,61.3,61.0,29.72,WNW,294,0.0,2.0,99,0.00,,,0.00,Wunderground v.1.15,2013-09-22 06:54:00,
2013-09-22 02:55:00,61.3,61.0,29.72,North,1,2.0,2.0,99,0.00,,,0.00,Wunderground v.1.15,2013-09-22 06:55:00,
2013-09-22 02:56:00,61.2,60.9,29.72,North,5,0.0,2.0,99,0.00,,,0.00,Wunderground v.1.15,2013-09-22 06:56:00,
2013-09-22 02:59:00,61.2,60.9,29.72,West,278,0.0,2.0,99,0.00,,,0.00,Wunderground v.1.15,2013-09-22 06:59:00,
2013-09-22 03:00:00,61.2,60.9,29.72,West,278,0.0,0.0,99,0.00,,,0.00,Wunderground v.1.15,2013-09-22 07:00:00,
2013-09-22 03:01:00,61.1,60.8,29.72,North,10,0.0,2.0,99,0.00,,,0.00,Wunderground v.1.15,2013-09-22 07:01:00,
2013-09-22 03:04:00,61.0,60.7,29.72,NW,312,3.0,3.0,99,0.00,,,0.00,Wunderground v.1.15,2013-09-22 07:04:00,
2013-09-22 03:05:00,61.0,60.7,29.72,WNW,288,1.0,3.0,99,0.00,,,0.00,Wunderground v.1.15,2013-09-22 07:05:00,
2013-09-22 03:06:00,61.0,60.7,29.72,NNW,342,0.0,3.0,99,0.00,,,0.00,Wunderground v.1.15,2013-09-22 07:06:00,
2013-09-22 03:09:00,60.9,60.6,29.72,NE,38,0.0,3.0,99,0.00,,,0.00,Wunderground v.1.15,2013-09-22 07:09:00,
2013-09-22 03:10:00,60.8,60.2,29.72,North,353,1.0,1.0,98,0.00,,,0.00,Wunderground v.1.15,2013-09-22 07:10:00,
2013-09-22 03:11:00,60.8,60.2,29.72,NNW,335,4.0,4.0,98,0.00,,,0.00,Wunderground v.1.15,2013-09-22 07:11:00,
2013-09-22 03:15:00,60.7,60.1,29.72,NE,53,2.0,5.0,98,0.00,,,0.00,Wunderground v.1.15,2013-09-22 07:15:00,
2013-09-22 03:16:00,60.6,60.0,29.72,East,97,1.0,5.0,98,0.00,,,0.00,Wunderground v.1.15,2013-09-22 07:16:00,
2013-09-22 03:17:00,60.6,60.0,29.72,East,98,0.0,5.0,98,0.00,,,0.00,Wunderground v.1.15,2013-09-22 07:17:00,
2013-09-22 03:20:00,60.6,60.0,29.72,South,174,0.0,1.0,98,0.00,,,0.00,Wunderground v.1.15,2013-09-22 07:20:00,
2013-09-22 03:21:00,60.5,59.9,29.73,South,174,0.0,1.0,98,0.00,,,0.00,Wunderground v.1.15,2013-09-22 07:21:00,
2013-09-22 03:22:00,60.5,59.9,29.72,NW,326,1.0,1.0,98,0.00,,,0.00,Wunderground v.1.15,2013-09-22 07:22:00,
2013-09-22 03:25:00,60.4,59.8,29.73,North,8,0.0,1.0,98,0.00,,,0.00,Wunderground v.1.15,2013-09-22 07:25:00,
2013-09-22 03:26:00,60.4,59.8,29.73,NNW,340,0.0,1.0,98,0.00,,,0.00,Wunderground v.1.15,2013-09-22 07:26:00,
2013-09-22 03:27:00,60.4,59.8,29.73,NNW,340,0.0,1.0,98,0.00,,,0.00,Wunderground v.1.15,2013-09-22 07:27:00,
2013-09-22 03:30:00,60.3,59.7,29.73,NNW,329,1.0,1.0,98,0.00,,,0.00,Wunderground v.1.15,2013-09-22 07:30:00,
2013-09-22 03:31:00,60.3,59.7,29.73,NNW,345,1.0,2.0,98,0.00,,,0.00,Wunderground v.1.15,2013-09-22 07:31:00,
2013-09-22 03:32:00,60.2,59.6,29.73,West,273,1.0,2.0,98,0.00,,,0.00,Wunderground v.1.15,2013-09-22 07:32:00,
2013-09-22 03:34:00,60.1,59.5,29.72,NNW,346,0.0,2.0,98,0.00,,,0.00,Wunderground v.1.15,2013-09-22 07:34:00,
2013-09-22 03:35:00,60.1,59.5,29.72,NE,51,0.0,5.0,98,0.00,,,0.00,Wunderground v.1.15,2013-09-22 07:35:00,
2013-09-22 03:36:00,60.1,59.5,29.72,ENE,71,2.0,5.0,98,0.00,,,0.00,Wunderground v.1.15,2013-09-22 07:36:00,
2013-09-22 03:37:00,60.1,59.5,29.72,NNE,27,0.0,5.0,98,0.00,,,0.00,Wunderground v.1.15,2013-09-22 07:37:00,
2013-09-22 03:39:00,60.0,59.4,29.72,SSW,212,0.0,5.0,98,0.00,,,0.00,Wunderground v.1.15,2013-09-22 07:39:00,
2013-09-22 03:40:00,60.0,59.4,29.72,North,356,0.0,2.0,98,0.00,,,0.00,Wunderground v.1.15,2013-09-22 07:40:00,
2013-09-22 03:41:00,60.0,59.4,29.72,North,357,0.0,2.0,98,0.00,,,0.00,Wunderground v.1.15,2013-09-22 07:41:00,
2013-09-22 03:42:00,59.9,59.3,29.72,NNE,32,3.0,3.0,98,0.00,,,0.00,Wunderground v.1.15,2013-09-22 07:42:00,
2013-09-22 03:43:00,59.9,59.3,29.72,NNE,32,2.0,3.0,98,0.00,,,0.00,Wunderground v.1.15,2013-09-22 07:43:00,
2013-09-22 03:44:00,59.9,59.3,29.72,NNE,20,1.0,3.0,98,0.00,,,0.00,Wunderground v.1.15,2013-09-22 07:44:00,
2013-09-22 03:46:00,59.9,59.3,29.72,NNE,13,0.0,3.0,98,0.00,,,0.00,Wunderground v.1.15,2013-09-22 07:46:00,
2013-09-22 03:47:00,59.8,59.2,29.72,East,93,0.0,3.0,98,0.00,,,0.00,Wunderground v.1.15,2013-09-22 07:47:00,
2013-09-22 03:48:00,59.8,59.2,29.72,ENE,65,1.0,3.0,98,0.00,,,0.00,Wunderground v.1.15,2013-09-22 07:48:00,
2013-09-22 03:49:00,59.8,59.2,29.73,NE,35,0.0,3.0,98,0.00,,,0.00,Wunderground v.1.15,2013-09-22 07:49:00,
2013-09-22 03:51:00,59.7,59.1,29.73,NE,34,0.0,1.0,98,0.00,,,0.00,Wunderground v.1.15,2013-09-22 07:51:00,
2013-09-22 03:52:00,59.7,59.1,29.73,NNE,13,1.0,1.0,98,0.00,,,0.00,Wunderground v.1.15,2013-09-22 07:52:00,
2013-09-22 03:53:00,59.6,59.0,29.73,NNE,14,0.0,1.0,98,0.00,,,0.00,Wunderground v.1.15,2013-09-22 07:53:00,
2013-09-22 03:54:00,59.6,59.0,29.73,North,354,1.0,2.0,98,0.00,,,0.00,Wunderground v.1.15,2013-09-22 07:54:00,
2013-09-22 03:56:00,59.5,58.9,29.73,East,86,0.0,2.0,98,0.00,,,0.00,Wunderground v.1.15,2013-09-22 07:56:00,
2013-09-22 03:57:00,59.5,58.9,29.72,East,86,0.0,2.0,98,0.00,,,0.00,Wunderground v.1.15,2013-09-22 07:57:00,
2013-09-22 03:58:00,59.4,58.8,29.73,East,86,0.0,2.0,98,0.00,,,0.00,Wunderground v.1.15,2013-09-22 07:58:00,
2013-09-22 04:01:00,59.3,58.7,29.73,East,86,0.0,0.0,98,0.00,,,0.00,Wunderground v.1.15,2013-09-22 08:01:00,
2013-09-22 04:02:00,59.3,58.7,29.73,East,89,0.0,0.0,98,0.00,,,0.00,Wunderground v.1.15,2013-09-22 08:02:00,
2013-09-22 04:03:00,59.3,58.7,29.73,East,89,0.0,0.0,98,0.00,,,0.00,Wunderground v.1.15,2013-09-22 08:03:00,
2013-09-22 04:06:00,59.2,58.6,29.73,NW,310,0.0,1.0,98,0.00,,,0.00,Wunderground v.1.15,2013-09-22 08:06:00,
2013-09-22 04:08:00,59.1,58.5,29.73,NNE,23,0.0,1.0,98,0.00,,,0.00,Wunderground v.1.15,2013-09-22 08:08:00,
2013-09-22 04:09:00,59.1,58.5,29.73,NE,35,0.0,1.0,98,0.00,,,0.00,Wunderground v.1.15,2013-09-22 08:09:00,
2013-09-22 04:12:00,59.0,58.4,29.73,NNW,330,1.0,2.0,98,0.00,,,0.00,Wunderground v.1.15,2013-09-22 08:12:00,
2013-09-22 04:13:00,59.0,58.4,29.73,NNW,330,0.0,2.0,98,0.00,,,0.00,Wunderground v.1.15,2013-09-22 08:13:00,
2013-09-22 04:14:00,59.0,58.4,29.73,NNW,330,0.0,2.0,98,0.00,,,0.00,Wunderground v.1.15,2013-09-22 08:14:00,
2013-09-22 04:17:00,58.9,58.3,29.73,NNE,23,0.0,2.0,98,0.00,,,0.00,Wunderground v.1.15,2013-09-22 08:17:00,
2013-09-22 04:18:00,58.9,58.3,29.73,NNE,23,0.0,2.0,98,0.00,,,0.00,Wunderground v.1.15,2013-09-22 08:18:00,
2013-09-22 04:19:00,58.8,58.2,29.73,NNE,23,0.0,2.0,98,0.00,,,0.00,Wunderground v.1.15,2013-09-22 08:19:00,
2013-09-22 04:22:00,58.7,58.1,29.73,NNE,15,1.0,1.0,98,0.00,,,0.00,Wunderground v.1.15,2013-09-22 08:22:00,
2013-09-22 04:23:00,58.7,58.1,29.73,NW,319,1.0,1.0,98,0.00,,,0.00,Wunderground v.1.15,2013-09-22 08:23:00,
2013-09-22 04:24:00,58.7,58.1,29.73,NNW,333,0.0,1.0,98,0.00,,,0.00,Wunderground v.1.15,2013-09-22 08:24:00,
2013-09-22 04:27:00,58.6,58.0,29.73,NE,36,0.0,1.0,98,0.00,,,0.00,Wunderground v.1.15,2013-09-22 08:27:00,
2013-09-22 04:29:00,58.6,58.0,29.73,NE,36,0.0,1.0,98,0.00,,,0.00,Wunderground v.1.15,2013-09-22 08:29:00,
2013-09-22 04:33:00,58.4,57.8,29.73,North,1,1.0,1.0,98,0.00,,,0.00,Wunderground v.1.15,2013-09-22 08:33:00,
2013-09-22 04:34:00,58.4,57.8,29.73,North,360,1.0,1.0,98,0.00,,,0.00,Wunderground v.1.15,2013-09-22 08:34:00,
2013-09-22 04:38:00,58.3,57.7,29.73,North,8,1.0,1.0,98,0.00,,,0.00,Wunderground v.1.15,2013-09-22 08:38:00,
2013-09-22 04:39:00,58.3,57.7,29.73,North,8,0.0,1.0,98,0.00,,,0.00,Wunderground v.1.15,2013-09-22 08:39:00,
2013-09-22 04:40:00,58.3,57.7,29.73,North,8,0.0,0.0,98,0.00,,,0.00,Wunderground v.1.15,2013-09-22 08:40:00,
2013-09-22 04:43:00,58.1,57.5,29.73,North,8,0.0,0.0,98,0.00,,,0.00,Wunderground v.1.15,2013-09-22 08:43:00,
2013-09-22 04:44:00,58.1,57.5,29.73,North,8,0.0,0.0,98,0.00,,,0.00,Wunderground v.1.15,2013-09-22 08:44:00,
2013-09-22 04:45:00,58.1,57.5,29.73,North,8,0.0,0.0,98,0.00,,,0.00,Wunderground v.1.15,2013-09-22 08:45:00,
2013-09-22 04:48:00,58.0,57.4,29.73,North,8,0.0,0.0,98,0.00,,,0.00,Wunderground v.1.15,2013-09-22 08:48:00,
2013-09-22 04:50:00,57.9,57.3,29.73,North,8,0.0,0.0,98,0.00,,,0.00,Wunderground v.1.15,2013-09-22 08:50:00,
2013-09-22 04:53:00,57.8,57.2,29.74,North,356,0.0,1.0,98,0.00,,,0.00,Wunderground v.1.15,2013-09-22 08:53:00,
2013-09-22 04:55:00,57.9,57.3,29.74,North,353,1.0,2.0,98,0.00,,,0.00,Wunderground v.1.15,2013-09-22 08:55:00,
2013-09-22 04:59:00,57.8,57.2,29.74,ENE,63,3.0,3.0,98,0.00,,,0.00,Wunderground v.1.15,2013-09-22 08:59:00,
2013-09-22 05:00:00,57.8,57.2,29.74,NE,36,0.0,1.0,98,0.00,,,0.00,Wunderground v.1.15,2013-09-22 09:00:00,
2013-09-22 05:04:00,57.8,57.2,29.74,NE,38,0.0,2.0,98,0.00,,,0.00,Wunderground v.1.15,2013-09-22 09:04:00,
2013-09-22 05:05:00,57.8,57.2,29.74,NE,37,0.0,2.0,98,0.00,,,0.00,Wunderground v.1.15,2013-09-22 09:05:00,
2013-09-22 05:09:00,57.7,57.1,29.74,NW,325,1.0,3.0,98,0.00,,,0.00,Wunderground v.1.15,2013-09-22 09:09:00,
2013-09-22 05:10:00,57.7,57.1,29.74,NW,325,0.0,1.0,98,0.00,,,0.00,Wunderground v.1.15,2013-09-22 09:10:00,
2013-09-22 05:11:00,57.7,57.1,29.74,WNW,302,1.0,1.0,98,0.00,,,0.00,Wunderground v.1.15,2013-09-22 09:11:00,
2013-09-22 05:14:00,57.7,57.1,29.74,NNW,348,0.0,3.0,98,0.00,,,0.00,Wunderground v.1.15,2013-09-22 09:14:00,
2013-09-22 05:15:00,57.7,57.1,29.75,NNW,346,0.0,3.0,98,0.00,,,0.00,Wunderground v.1.15,2013-09-22 09:15:00,
2013-09-22 05:16:00,57.6,57.0,29.75,North,358,1.0,3.0,98,0.00,,,0.00,Wunderground v.1.15,2013-09-22 09:16:00,
2013-09-22 05:19:00,57.6,57.0,29.75,North,1,0.0,3.0,98,0.00,,,0.00,Wunderground v.1.15,2013-09-22 09:19:00,
2013-09-22 05:20:00,57.6,57.0,29.75,NNE,20,1.0,1.0,98,0.00,,,0.00,Wunderground v.1.15,2013-09-22 09:20:00,
2013-09-22 05:21:00,57.6,57.0,29.75,North,10,1.0,1.0,98,0.00,,,0.00,Wunderground v.1.15,2013-09-22 09:21:00,
2013-09-22 05:24:00,57.5,56.9,29.75,NNW,345,0.0,1.0,98,0.00,,,0.00,Wunderground v.1.15,2013-09-22 09:24:00,
2013-09-22 05:25:00,57.5,56.9,29.75,NNE,23,0.0,3.0,98,0.00,,,0.00,Wunderground v.1.15,2013-09-22 09:25:00,
2013-09-22 05:26:00,57.5,56.9,29.75,NW,319,2.0,3.0,98,0.00,,,0.00,Wunderground v.1.15,2013-09-22 09:26:00,
2013-09-22 05:27:00,57.4,56.8,29.75,NE,49,2.0,3.0,98,0.00,,,0.00,Wunderground v.1.15,2013-09-22 09:27:00,
2013-09-22 05:29:00,57.4,56.8,29.75,NNE,18,0.0,3.0,98,0.00,,,0.00,Wunderground v.1.15,2013-09-22 09:29:00,
2013-09-22 05:30:00,57.4,56.8,29.75,NNW,330,1.0,3.0,98,0.00,,,0.00,Wunderground v.1.15,2013-09-22 09:30:00,
2013-09-22 05:31:00,57.4,56.8,29.75,NNW,330,0.0,3.0,98,0.00,,,0.00,Wunderground v.1.15,2013-09-22 09:31:00,
2013-09-22 05:32:00,57.4,56.6,29.75,NNW,330,0.0,3.0,97,0.00,,,0.00,Wunderground v.1.15,2013-09-22 09:32:00,
2013-09-22 05:34:00,57.4,56.6,29.75,NNE,32,0.0,4.0,97,0.00,,,0.00,Wunderground v.1.15,2013-09-22 09:34:00,
2013-09-22 05:35:00,57.4,56.6,29.75,NNE,31,1.0,4.0,97,0.00,,,0.00,Wunderground v.1.15,2013-09-22 09:35:00,
2013-09-22 05:36:00,57.4,56.6,29.75,WSW,240,1.0,4.0,97,0.00,,,0.00,Wunderground v.1.15,2013-09-22 09:36:00,
2013-09-22 05:37:00,57.4,56.6,29.75,WNW,297,1.0,4.0,97,0.00,,,0.00,Wunderground v.1.15,2013-09-22 09:37:00,
2013-09-22 05:39:00,57.3,56.5,29.75,NW,318,0.0,4.0,97,0.00,,,0.00,Wunderground v.1.15,2013-09-22 09:39:00,
2013-09-22 05:40:00,57.3,56.5,29.75,NNW,347,0.0,2.0,97,0.00,,,0.00,Wunderground v.1.15,2013-09-22 09:40:00,
2013-09-22 05:41:00,57.3,56.5,29.75,NNW,337,1.0,2.0,97,0.00,,,0.00,Wunderground v.1.15,2013-09-22 09:41:00,
2013-09-22 05:42:00,57.2,56.4,29.75,NE,44,1.0,2.0,97,0.00,,,0.00,Wunderground v.1.15,2013-09-22 09:42:00,
2013-09-22 05:45:00,57.2,56.4,29.75,WNW,302,0.0,2.0,97,0.00,,,0.00,Wunderground v.1.15,2013-09-22 09:45:00,
2013-09-22 05:46:00,57.2,56.4,29.75,WNW,302,0.0,2.0,97,0.00,,,0.00,Wunderground v.1.15,2013-09-22 09:46:00,
2013-09-22 05:47:00,57.2,56.4,29.75,NW,308,0.0,2.0,97,0.00,,,0.00,Wunderground v.1.15,2013-09-22 09:47:00,
2013-09-22 05:48:00,57.1,56.3,29.75,NW,308,0.0,2.0,97,0.00,,,0.00,Wunderground v.1.15,2013-09-22 09:48:00,
2013-09-22 05:50:00,57.1,56.3,29.76,NNW,340,1.0,1.0,97,0.00,,,0.00,Wunderground v.1.15,2013-09-22 09:50:00,
2013-09-22 05:51:00,57.0,56.2,29.76,NNW,343,0.0,1.0,97,0.00,,,0.00,Wunderground v.1.15,2013-09-22 09:51:00,
2013-09-22 05:52:00,57.0,56.2,29.76,NNW,342,0.0,1.0,97,0.00,,,0.00,Wunderground v.1.15,2013-09-22 09:52:00,
2013-09-22 05:53:00,57.0,56.2,29.76,East,87,0.0,1.0,97,0.00,,,0.00,Wunderground v.1.15,2013-09-22 09:53:00,
2013-09-22 05:56:00,56.9,56.1,29.76,East,84,0.0,2.0,97,0.00,,,0.00,Wunderground v.1.15,2013-09-22 09:56:00,
2013-09-22 05:57:00,56.9,56.1,29.76,East,85,0.0,2.0,97,0.00,,,0.00,Wunderground v.1.15,2013-09-22 09:57:00,
2013-09-22 05:58:00,56.9,56.1,29.76,East,84,0.0,2.0,97,0.00,,,0.00,Wunderground v.1.15,2013-09-22 09:58:00,
2013-09-22 05:59:00,56.9,56.1,29.76,East,84,0.0,2.0,97,0.00,,,0.00,Wunderground v.1.15,2013-09-22 09:59:00,
2013-09-22 06:01:00,56.8,56.0,29.76,NNE,15,0.0,2.0,97,0.00,,,0.00,Wunderground v.1.15,2013-09-22 10:01:00,
2013-09-22 06:02:00,56.8,56.0,29.76,NNE,15,0.0,2.0,97,0.00,,,0.00,Wunderground v.1.15,2013-09-22 10:02:00,
2013-09-22 06:04:00,56.8,56.0,29.76,NNE,16,0.0,2.0,97,0.00,,,0.00,Wunderground v.1.15,2013-09-22 10:04:00,
2013-09-22 06:06:00,56.7,55.9,29.76,NNE,16,0.0,2.0,97,0.00,,,0.00,Wunderground v.1.15,2013-09-22 10:06:00,
2013-09-22 06:07:00,56.6,55.8,29.76,NNE,16,0.0,2.0,97,0.00,,,0.00,Wunderground v.1.15,2013-09-22 10:07:00,
2013-09-22 06:08:00,56.6,55.8,29.76,NW,319,2.0,2.0,97,0.00,,,0.00,Wunderground v.1.15,2013-09-22 10:08:00,
2013-09-22 06:09:00,56.6,55.8,29.76,North,5,0.0,2.0,97,0.00,,,0.00,Wunderground v.1.15,2013-09-22 10:09:00,
2013-09-22 06:10:00,56.6,55.8,29.76,North,5,0.0,0.0,97,0.00,,,0.00,Wunderground v.1.15,2013-09-22 10:10:00,
2013-09-22 06:11:00,56.5,55.7,29.76,SW,225,0.0,0.0,97,0.00,,,0.00,Wunderground v.1.15,2013-09-22 10:11:00,
2013-09-22 06:12:00,56.6,55.8,29.76,SW,225,0.0,0.0,97,0.00,,,0.00,Wunderground v.1.15,2013-09-22 10:12:00,
2013-09-22 06:13:00,56.5,55.7,29.76,SW,225,0.0,1.0,97,0.00,,,0.00,Wunderground v.1.15,2013-09-22 10:13:00,
2013-09-22 06:14:00,56.5,55.7,29.76,SW,225,0.0,1.0,97,0.00,,,0.00,Wunderground v.1.15,2013-09-22 10:14:00,
2013-09-22 06:15:00,56.4,55.6,29.76,SW,225,0.0,1.0,97,0.00,,,0.00,Wunderground v.1.15,2013-09-22 10:15:00,
2013-09-22 06:16:00,56.4,55.6,29.76,WSW,256,0.0,1.0,97,0.00,,,0.00,Wunderground v.1.15,2013-09-22 10:16:00,
2013-09-22 06:17:00,56.4,55.6,29.77,North,352,0.0,1.0,97,0.00,,,0.00,Wunderground v.1.15,2013-09-22 10:17:00,
2013-09-22 06:19:00,56.4,55.6,29.77,North,353,0.0,1.0,97,0.00,,,0.00,Wunderground v.1.15,2013-09-22 10:19:00,
2013-09-22 06:20:00,56.3,55.5,29.77,North,353,0.0,0.0,97,0.00,,,0.00,Wunderground v.1.15,2013-09-22 10:20:00,
2013-09-22 06:22:00,56.3,55.5,29.77,North,353,0.0,0.0,97,0.00,,,0.00,Wunderground v.1.15,2013-09-22 10:22:00,
2013-09-22 06:24:00,56.2,55.4,29.77,North,353,1.0,1.0,97,0.00,,,0.00,Wunderground v.1.15,2013-09-22 10:24:00,
2013-09-22 06:26:00,56.2,55.4,29.77,North,353,0.0,1.0,97,0.00,,,0.00,Wunderground v.1.15,2013-09-22 10:26:00,
2013-09-22 06:27:00,56.1,55.3,29.77,NNE,23,1.0,2.0,97,0.00,,,0.00,Wunderground v.1.15,2013-09-22 10:27:00,
2013-09-22 06:28:00,56.1,55.3,29.77,WNW,302,2.0,2.0,97,0.00,,,0.00,Wunderground v.1.15,2013-09-22 10:28:00,
2013-09-22 06:29:00,56.1,55.3,29.77,NNE,12,0.0,2.0,97,0.00,,,0.00,Wunderground v.1.15,2013-09-22 10:29:00,
2013-09-22 06:31:00,56.1,55.3,29.77,North,11,0.0,0.0,97,0.00,,,0.00,Wunderground v.1.15,2013-09-22 10:31:00,
2013-09-22 06:32:00,56.0,55.2,29.77,East,86,0.0,0.0,97,0.00,,,0.00,Wunderground v.1.15,2013-09-22 10:32:00,
2013-09-22 06:33:00,56.0,55.2,29.77,East,84,0.0,0.0,97,0.00,,,0.00,Wunderground v.1.15,2013-09-22 10:33:00,
2013-09-22 06:34:00,56.0,55.2,29.77,East,84,0.0,0.0,97,0.00,,,0.00,Wunderground v.1.15,2013-09-22 10:34:00,
2013-09-22 06:36:00,56.0,55.2,29.77,ENE,75,0.0,0.0,97,0.00,,,0.00,Wunderground v.1.15,2013-09-22 10:36:00,
2013-09-22 06:37:00,55.9,55.1,29.77,ENE,73,0.0,0.0,97,0.00,,,0.00,Wunderground v.1.15,2013-09-22 10:37:00,
2013-09-22 06:38:00,55.9,55.1,29.77,ENE,73,0.0,0.0,97,0.00,,,0.00,Wunderground v.1.15,2013-09-22 10:38:00,
2013-09-22 06:39:00,55.9,55.1,29.77,ENE,75,0.0,0.0,97,0.00,,,0.00,Wunderground v.1.15,2013-09-22 10:39:00,
2013-09-22 06:42:00,55.9,55.1,29.77,ENE,73,0.0,0.0,97,0.00,,,0.00,Wunderground v.1.15,2013-09-22 10:42:00,
2013-09-22 06:43:00,55.9,55.1,29.77,ENE,72,0.0,0.0,97,0.00,,,0.00,Wunderground v.1.15,2013-09-22 10:43:00,
2013-09-22 06:44:00,55.9,55.1,29.77,NNE,16,0.0,2.0,97,0.00,,,0.00,Wunderground v.1.15,2013-09-22 10:44:00,
2013-09-22 06:45:00,55.9,55.1,29.77,NNE,15,0.0,2.0,97,0.00,,,0.00,Wunderground v.1.15,2013-09-22 10:45:00,
2013-09-22 06:47:00,55.8,55.0,29.77,NE,43,0.0,3.0,97,0.00,,,0.00,Wunderground v.1.15,2013-09-22 10:47:00,
2013-09-22 06:48:00,55.8,55.0,29.77,NE,42,0.0,3.0,97,0.00,,,0.00,Wunderground v.1.15,2013-09-22 10:48:00,
2013-09-22 06:49:00,55.8,55.0,29.77,NNE,14,1.0,3.0,97,0.00,,,0.00,Wunderground v.1.15,2013-09-22 10:49:00,
2013-09-22 06:50:00,55.8,55.0,29.77,NNE,14,0.0,1.0,97,0.00,,,0.00,Wunderground v.1.15,2013-09-22 10:50:00,
2013-09-22 06:52:00,55.8,55.0,29.77,NW,319,0.0,2.0,97,0.00,,,0.00,Wunderground v.1.15,2013-09-22 10:52:00,
2013-09-22 06:53:00,55.8,55.2,29.77,NW,319,0.0,2.0,98,0.00,,,0.00,Wunderground v.1.15,2013-09-22 10:53:00,
2013-09-22 06:54:00,55.8,55.2,29.77,NW,319,0.0,2.0,98,0.00,,,0.00,Wunderground v.1.15,2013-09-22 10:54:00,
2013-09-22 06:55:00,55.7,55.1,29.77,NW,319,0.0,2.0,98,0.00,,,0.00,Wunderground v.1.15,2013-09-22 10:55:00,
2013-09-22 06:58:00,55.7,55.1,29.78,SW,231,0.0,2.0,98,0.00,,,0.00,Wunderground v.1.15,2013-09-22 10:58:00,
2013-09-22 06:59:00,55.7,54.9,29.78,SW,231,0.0,2.0,97,0.00,,,0.00,Wunderground v.1.15,2013-09-22 10:59:00,
2013-09-22 07:00:00,55.7,54.9,29.77,SW,231,0.0,0.0,97,0.00,,,0.00,Wunderground v.1.15,2013-09-22 11:00:00,
2013-09-22 07:01:00,55.7,54.9,29.78,WSW,257,0.0,0.0,97,0.00,,,0.00,Wunderground v.1.15,2013-09-22 11:01:00,
2013-09-22 07:03:00,55.6,54.8,29.77,North,3,0.0,3.0,97,0.00,,,0.00,Wunderground v.1.15,2013-09-22 11:03:00,
2013-09-22 07:04:00,55.6,54.8,29.77,North,5,1.0,3.0,97,0.00,,,0.00,Wunderground v.1.15,2013-09-22 11:04:00,
2013-09-22 07:05:00,55.6,54.8,29.78,North,357,0.0,3.0,97,0.00,,,0.00,Wunderground v.1.15,2013-09-22 11:05:00,
2013-09-22 07:06:00,55.6,54.8,29.78,North,359,0.0,3.0,97,0.00,,,0.00,Wunderground v.1.15,2013-09-22 11:06:00,
2013-09-22 07:09:00,55.6,54.8,29.78,ENE,69,1.0,3.0,97,0.00,,,0.00,Wunderground v.1.15,2013-09-22 11:09:00,
2013-09-22 07:10:00,55.6,54.8,29.78,North,357,0.0,0.0,97,0.00,,,0.00,Wunderground v.1.15,2013-09-22 11:10:00,
2013-09-22 07:11:00,55.6,54.8,29.78,WNW,300,2.0,2.0,97,0.00,,,0.00,Wunderground v.1.15,2013-09-22 11:11:00,
2013-09-22 07:14:00,55.5,54.7,29.78,WNW,296,1.0,2.0,97,0.00,,,0.00,Wunderground v.1.15,2013-09-22 11:14:00,
2013-09-22 07:15:00,55.5,54.7,29.78,WNW,296,0.0,2.0,97,0.00,,,0.00,Wunderground v.1.15,2013-09-22 11:15:00,
2013-09-22 07:16:00,55.5,54.7,29.78,WNW,297,0.0,2.0,97,0.00,,,0.00,Wunderground v.1.15,2013-09-22 11:16:00,
2013-09-22 07:19:00,55.5,54.7,29.78,NNW,330,0.0,2.0,97,0.00,,,0.00,Wunderground v.1.15,2013-09-22 11:19:00,
2013-09-22 07:20:00,55.5,54.7,29.78,NNW,330,0.0,0.0,97,0.00,,,0.00,Wunderground v.1.15,2013-09-22 11:20:00,
2013-09-22 07:21:00,55.5,54.7,29.78,NNW,344,1.0,2.0,97,0.00,,,0.00,Wunderground v.1.15,2013-09-22 11:21:00,
2013-09-22 07:24:00,55.5,54.7,29.78,North,354,0.0,2.0,97,0.00,,,0.00,Wunderground v.1.15,2013-09-22 11:24:00,
2013-09-22 07:25:00,55.5,54.7,29.78,North,354,0.0,2.0,97,0.00,,,0.00,Wunderground v.1.15,2013-09-22 11:25:00,
2013-09-22 07:26:00,55.4,54.6,29.78,North,354,0.0,2.0,97,0.00,,,0.00,Wunderground v.1.15,2013-09-22 11:26:00,
2013-09-22 07:29:00,55.4,54.6,29.78,ENE,57,0.0,2.0,97,0.00,,,0.00,Wunderground v.1.15,2013-09-22 11:29:00,
2013-09-22 07:30:00,55.4,54.6,29.78,ENE,57,0.0,0.0,97,0.00,,,0.00,Wunderground v.1.15,2013-09-22 11:30:00,
2013-09-22 07:31:00,55.4,54.6,29.79,North,11,0.0,2.0,97,0.00,,,0.00,Wunderground v.1.15,2013-09-22 11:31:00,
2013-09-22 07:35:00,55.3,54.5,29.79,NE,46,0.0,2.0,97,0.00,,,0.00,Wunderground v.1.15,2013-09-22 11:35:00,
2013-09-22 07:37:00,55.3,54.5,29.79,NNW,348,0.0,2.0,97,0.00,,,0.00,Wunderground v.1.15,2013-09-22 11:37:00,
2013-09-22 07:40:00,55.3,54.5,29.79,NNE,13,0.0,0.0,97,0.00,,,0.00,Wunderground v.1.15,2013-09-22 11:40:00,
2013-09-22 07:42:00,55.3,54.5,29.79,NNW,348,0.0,2.0,97,0.00,,,0.00,Wunderground v.1.15,2013-09-22 11:42:00,
2013-09-22 07:45:00,55.3,54.5,29.79,North,360,0.0,2.0,97,0.00,,,0.00,Wunderground v.1.15,2013-09-22 11:45:00,
2013-09-22 07:48:00,55.3,54.5,29.79,North,353,0.0,2.0,97,0.00,,,0.00,Wunderground v.1.15,2013-09-22 11:48:00,
2013-09-22 07:50:00,55.3,54.5,29.79,North,5,1.0,1.0,97,0.00,,,0.00,Wunderground v.1.15,2013-09-22 11:50:00,
2013-09-22 07:51:00,55.3,54.5,29.79,NNW,344,1.0,1.0,97,0.00,,,0.00,Wunderground v.1.15,2013-09-22 11:51:00,
2013-09-22 07:53:00,55.4,54.6,29.80,NNW,342,1.0,1.0,97,0.00,,,0.00,Wunderground v.1.15,2013-09-22 11:53:00,
2013-09-22 07:55:00,55.5,54.7,29.80,NNE,20,0.0,3.0,97,0.00,,,0.00,Wunderground v.1.15,2013-09-22 11:55:00,
2013-09-22 07:56:00,55.5,54.7,29.80,NNE,20,0.0,3.0,97,0.00,,,0.00,Wunderground v.1.15,2013-09-22 11:56:00,
2013-09-22 07:59:00,55.5,54.7,29.80,ENE,75,0.0,3.0,97,0.00,,,0.00,Wunderground v.1.15,2013-09-22 11:59:00,
2013-09-22 08:00:00,55.5,54.7,29.80,North,360,2.0,3.0,97,0.00,,,0.00,Wunderground v.1.15,2013-09-22 12:00:00,
2013-09-22 08:01:00,55.5,54.7,29.80,WSW,256,1.0,3.0,97,0.00,,,0.00,Wunderground v.1.15,2013-09-22 12:01:00,
2013-09-22 08:04:00,55.7,54.9,29.80,NNW,330,2.0,3.0,97,0.00,,,0.00,Wunderground v.1.15,2013-09-22 12:04:00,
2013-09-22 08:05:00,55.7,54.6,29.80,NNW,335,0.0,3.0,96,0.00,,,0.00,Wunderground v.1.15,2013-09-22 12:05:00,
2013-09-22 08:06:00,55.7,54.6,29.80,NNW,335,1.0,3.0,96,0.00,,,0.00,Wunderground v.1.15,2013-09-22 12:06:00,
2013-09-22 08:09:00,55.8,54.7,29.80,NW,315,1.0,3.0,96,0.00,,,0.00,Wunderground v.1.15,2013-09-22 12:09:00,
2013-09-22 08:11:00,55.9,54.8,29.80,NNW,342,1.0,2.0,96,0.00,,,0.00,Wunderground v.1.15,2013-09-22 12:11:00,
2013-09-22 08:15:00,56.1,55.0,29.81,SE,128,0.0,3.0,96,0.00,,,0.00,Wunderground v.1.15,2013-09-22 12:15:00,
2013-09-22 08:16:00,56.1,55.0,29.81,WSW,243,2.0,3.0,96,0.00,,,0.00,Wunderground v.1.15,2013-09-22 12:16:00,
2013-09-22 08:20:00,56.3,54.9,29.81,NE,35,0.0,1.0,95,0.00,,,0.00,Wunderground v.1.15,2013-09-22 12:20:00,
2013-09-22 08:21:00,56.4,55.0,29.81,NE,36,0.0,1.0,95,0.00,,,0.00,Wunderground v.1.15,2013-09-22 12:21:00,
2013-09-22 08:22:00,56.4,55.0,29.81,WSW,252,1.0,1.0,95,0.00,,,0.00,Wunderground v.1.15,2013-09-22 12:22:00,
2013-09-22 08:25:00,56.5,55.1,29.81,NW,319,0.0,2.0,95,0.00,,,0.00,Wunderground v.1.15,2013-09-22 12:25:00,
2013-09-22 08:26:00,56.5,55.1,29.81,NW,319,0.0,2.0,95,0.00,,,0.00,Wunderground v.1.15,2013-09-22 12:26:00,
2013-09-22 08:27:00,56.5,55.1,29.81,WNW,303,2.0,2.0,95,0.00,,,0.00,Wunderground v.1.15,2013-09-22 12:27:00,
2013-09-22 08:31:00,56.7,55.3,29.81,NW,311,1.0,2.0,95,0.00,,,0.00,Wunderground v.1.15,2013-09-22 12:31:00,
2013-09-22 08:32:00,56.7,55.3,29.81,NNW,342,0.0,2.0,95,0.00,,,0.00,Wunderground v.1.15,2013-09-22 12:32:00,
2013-09-22 08:36:00,56.9,55.2,29.82,NNW,328,2.0,3.0,94,0.00,,,0.00,Wunderground v.1.15,2013-09-22 12:36:00,
2013-09-22 08:37:00,57.0,55.3,29.81,ENE,69,1.0,3.0,94,0.00,,,0.00,Wunderground v.1.15,2013-09-22 12:37:00,
2013-09-22 08:41:00,57.3,55.6,29.82,NE,39,3.0,3.0,94,0.00,,,0.00,Wunderground v.1.15,2013-09-22 12:41:00,
2013-09-22 08:42:00,57.3,55.6,29.82,NNE,15,1.0,4.0,94,0.00,,,0.00,Wunderground v.1.15,2013-09-22 12:42:00,
2013-09-22 08:43:00,57.4,55.7,29.81,West,281,3.0,4.0,94,0.00,,,0.00,Wunderground v.1.15,2013-09-22 12:43:00,
2013-09-22 08:46:00,57.5,55.5,29.81,NNW,328,1.0,4.0,93,0.00,,,0.00,Wunderground v.1.15,2013-09-22 12:46:00,
2013-09-22 08:48:00,57.6,55.6,29.81,NNW,329,2.0,4.0,93,0.00,,,0.00,Wunderground v.1.15,2013-09-22 12:48:00,
2013-09-22 08:51:00,57.9,55.6,29.82,WNW,302,4.0,5.0,92,0.00,,,0.00,Wunderground v.1.15,2013-09-22 12:51:00,
2013-09-22 08:52:00,57.9,55.6,29.82,WSW,243,0.0,5.0,92,0.00,,,0.00,Wunderground v.1.15,2013-09-22 12:52:00,
2013-09-22 08:53:00,58.0,55.7,29.82,NNW,335,3.0,5.0,92,0.00,,,0.00,Wunderground v.1.15,2013-09-22 12:53:00,
2013-09-22 08:56:00,58.2,55.9,29.82,East,79,1.0,5.0,92,0.00,,,0.00,Wunderground v.1.15,2013-09-22 12:56:00,
2013-09-22 08:57:00,58.2,55.6,29.82,East,83,1.0,5.0,91,0.00,,,0.00,Wunderground v.1.15,2013-09-22 12:57:00,
2013-09-22 08:58:00,58.3,55.7,29.82,East,101,1.0,5.0,91,0.00,,,0.00,Wunderground v.1.15,2013-09-22 12:58:00,
2013-09-22 09:01:00,58.5,55.9,29.82,ENE,59,1.0,3.0,91,0.00,,,0.00,Wunderground v.1.15,2013-09-22 13:01:00,
2013-09-22 09:02:00,58.5,55.6,29.82,NNW,333,3.0,5.0,90,0.00,,,0.00,Wunderground v.1.15,2013-09-22 13:02:00,
2013-09-22 09:03:00,58.6,56.0,29.82,ENE,60,2.0,5.0,91,0.00,,,0.00,Wunderground v.1.15,2013-09-22 13:03:00,
2013-09-22 09:04:00,58.7,56.1,29.82,NW,315,1.0,5.0,91,0.00,,,0.00,Wunderground v.1.15,2013-09-22 13:04:00,
2013-09-22 09:08:00,58.9,56.0,29.82,NNE,20,0.0,5.0,90,0.00,,,0.00,Wunderground v.1.15,2013-09-22 13:08:00,
2013-09-22 09:09:00,59.0,56.1,29.82,NE,41,2.0,5.0,90,0.00,,,0.00,Wunderground v.1.15,2013-09-22 13:09:00,
2013-09-22 09:13:00,59.2,56.3,29.82,NNE,15,1.0,3.0,90,0.00,,,0.00,Wunderground v.1.15,2013-09-22 13:13:00,
2013-09-22 09:14:00,59.3,56.1,29.82,North,8,2.0,5.0,89,0.00,,,0.00,Wunderground v.1.15,2013-09-22 13:14:00,
2013-09-22 09:18:00,59.5,56.3,29.83,ENE,74,0.0,5.0,89,0.00,,,0.00,Wunderground v.1.15,2013-09-22 13:18:00,
2013-09-22 09:19:00,59.6,56.4,29.83,NE,41,4.0,5.0,89,0.00,,,0.00,Wunderground v.1.15,2013-09-22 13:19:00,
2013-09-22 09:24:00,60.0,56.4,29.83,NE,35,4.0,7.0,88,0.00,,,0.00,Wunderground v.1.15,2013-09-22 13:24:00,
2013-09-22 09:25:00,60.1,56.5,29.83,North,360,0.0,7.0,88,0.00,,,0.00,Wunderground v.1.15,2013-09-22 13:25:00,
2013-09-22 09:29:00,60.3,56.7,29.83,East,91,0.0,7.0,88,0.00,,,0.00,Wunderground v.1.15,2013-09-22 13:29:00,
2013-09-22 09:30:00,60.3,56.7,29.83,NNE,23,1.0,2.0,88,0.00,,,0.00,Wunderground v.1.15,2013-09-22 13:30:00,
2013-09-22 09:34:00,60.5,56.9,29.83,NE,39,0.0,4.0,88,0.00,,,0.00,Wunderground v.1.15,2013-09-22 13:34:00,
2013-09-22 09:35:00,60.5,56.6,29.83,NNW,345,1.0,4.0,87,0.00,,,0.00,Wunderground v.1.15,2013-09-22 13:35:00,
2013-09-22 09:39:00,60.8,56.9,29.83,East,83,1.0,4.0,87,0.00,,,0.00,Wunderground v.1.15,2013-09-22 13:39:00,
2013-09-22 09:40:00,61.0,57.1,29.83,NE,41,1.0,1.0,87,0.00,,,0.00,Wunderground v.1.15,2013-09-22 13:40:00,
2013-09-22 09:41:00,61.0,57.1,29.83,ENE,69,3.0,3.0,87,0.00,,,0.00,Wunderground v.1.15,2013-09-22 13:41:00,
2013-09-22 09:44:00,61.3,57.4,29.83,NW,315,0.0,3.0,87,0.00,,,0.00,Wunderground v.1.15,2013-09-22 13:44:00,
2013-09-22 09:45:00,61.5,57.3,29.83,NE,46,0.0,3.0,86,0.00,,,0.00,Wunderground v.1.15,2013-09-22 13:45:00,
2013-09-22 09:46:00,61.5,57.3,29.83,East,95,4.0,4.0,86,0.00,,,0.00,Wunderground v.1.15,2013-09-22 13:46:00,
2013-09-22 09:49:00,61.8,57.6,29.83,SE,136,0.0,4.0,86,0.00,,,0.00,Wunderground v.1.15,2013-09-22 13:49:00,
2013-09-22 09:50:00,61.8,57.6,29.83,SE,136,1.0,1.0,86,0.00,,,0.00,Wunderground v.1.15,2013-09-22 13:50:00,
2013-09-22 09:51:00,61.8,57.6,29.83,SSW,210,1.0,1.0,86,0.00,,,0.00,Wunderground v.1.15,2013-09-22 13:51:00,
2013-09-22 09:54:00,62.0,57.8,29.83,WSW,249,3.0,3.0,86,0.00,,,0.00,Wunderground v.1.15,2013-09-22 13:54:00,
2013-09-22 09:55:00,62.0,57.8,29.83,ENE,75,1.0,4.0,86,0.00,,,0.00,Wunderground v.1.15,2013-09-22 13:55:00,
2013-09-22 09:56:00,62.1,57.9,29.83,ENE,75,0.0,4.0,86,0.00,,,0.00,Wunderground v.1.15,2013-09-22 13:56:00,
2013-09-22 09:57:00,62.1,57.9,29.83,ENE,75,0.0,4.0,86,0.00,,,0.00,Wunderground v.1.15,2013-09-22 13:57:00,
2013-09-22 09:59:00,62.3,57.4,29.83,East,82,1.0,4.0,84,0.00,,,0.00,Wunderground v.1.15,2013-09-22 13:59:00,
2013-09-22 10:00:00,62.4,57.8,29.83,East,82,1.0,1.0,85,0.00,,,0.00,Wunderground v.1.15,2013-09-22 14:00:00,
2013-09-22 10:01:00,62.4,57.8,29.83,East,82,1.0,1.0,85,0.00,,,0.00,Wunderground v.1.15,2013-09-22 14:01:00,
2013-09-22 10:02:00,62.5,57.9,29.83,NW,308,6.0,6.0,85,0.00,,,0.00,Wunderground v.1.15,2013-09-22 14:02:00,
2013-09-22 10:05:00,62.7,57.5,29.83,NE,41,3.0,6.0,83,0.00,,,0.00,Wunderground v.1.15,2013-09-22 14:05:00,
2013-09-22 10:06:00,62.7,57.1,29.83,NW,308,1.0,6.0,82,0.00,,,0.00,Wunderground v.1.15,2013-09-22 14:06:00,
2013-09-22 10:07:00,62.8,57.6,29.83,East,84,1.0,6.0,83,0.00,,,0.00,Wunderground v.1.15,2013-09-22 14:07:00,
2013-09-22 10:08:00,62.9,57.7,29.83,East,84,0.0,6.0,83,0.00,,,0.00,Wunderground v.1.15,2013-09-22 14:08:00,
2013-09-22 10:10:00,63.0,57.8,29.83,NNE,13,4.0,5.0,83,0.00,,,0.00,Wunderground v.1.15,2013-09-22 14:10:00,
2013-09-22 10:11:00,63.1,57.2,29.84,NE,44,1.0,5.0,81,0.00,,,0.00,Wunderground v.1.15,2013-09-22 14:11:00,
2013-09-22 10:13:00,63.3,57.0,29.83,NW,325,0.0,5.0,80,0.00,,,0.00,Wunderground v.1.15,2013-09-22 14:13:00,
2013-09-22 10:15:00,63.7,58.1,29.83,NW,307,0.0,5.0,82,0.00,,,0.00,Wunderground v.1.15,2013-09-22 14:15:00,
2013-09-22 10:16:00,63.7,57.4,29.83,NNW,340,2.0,5.0,80,0.00,,,0.00,Wunderground v.1.15,2013-09-22 14:16:00,
2013-09-22 10:18:00,64.0,57.7,29.83,ESE,119,0.0,5.0,80,0.00,,,0.00,Wunderground v.1.15,2013-09-22 14:18:00,
2013-09-22 10:20:00,64.2,57.9,29.83,NNE,18,0.0,2.0,80,0.00,,,0.00,Wunderground v.1.15,2013-09-22 14:20:00,
2013-09-22 10:21:00,64.3,57.6,29.84,NE,39,0.0,4.0,79,0.00,,,0.00,Wunderground v.1.15,2013-09-22 14:21:00,
2013-09-22 10:23:00,64.6,57.9,29.84,East,93,1.0,4.0,79,0.00,,,0.00,Wunderground v.1.15,2013-09-22 14:23:00,
2013-09-22 10:25:00,64.6,57.9,29.84,NW,309,2.0,4.0,79,0.00,,,0.00,Wunderground v.1.15,2013-09-22 14:25:00,
2013-09-22 10:26:00,64.8,57.4,29.83,NNE,21,1.0,6.0,77,0.00,,,0.00,Wunderground v.1.15,2013-09-22 14:26:00,
2013-09-22 10:29:00,65.2,58.2,29.83,SSE,154,1.0,6.0,78,0.00,,,0.00,Wunderground v.1.15,2013-09-22 14:29:00,
2013-09-22 10:30:00,65.3,58.3,29.83,NNE,16,1.0,2.0,78,0.00,,,0.00,Wunderground v.1.15,2013-09-22 14:30:00,
2013-09-22 10:31:00,65.5,57.7,29.83,ENE,77,3.0,4.0,76,0.00,,,0.00,Wunderground v.1.15,2013-09-22 14:31:00,
2013-09-22 10:34:00,65.8,59.1,29.84,NE,55,1.0,4.0,79,0.00,,,0.00,Wunderground v.1.15,2013-09-22 14:34:00,
2013-09-22 10:35:00,65.9,59.2,29.84,NE,55,1.0,4.0,79,0.00,,,0.00,Wunderground v.1.15,2013-09-22 14:35:00,
2013-09-22 10:36:00,66.0,58.2,29.83,NE,52,0.0,4.0,76,0.00,,,0.00,Wunderground v.1.15,2013-09-22 14:36:00,
2013-09-22 10:37:00,66.0,58.2,29.83,NE,52,0.0,4.0,76,0.00,,,0.00,Wunderground v.1.15,2013-09-22 14:37:00,
2013-09-22 10:40:00,66.3,58.9,29.84,NE,44,0.0,1.0,77,0.00,,,0.00,Wunderground v.1.15,2013-09-22 14:40:00,
2013-09-22 10:41:00,66.5,59.1,29.83,East,85,0.0,4.0,77,0.00,,,0.00,Wunderground v.1.15,2013-09-22 14:41:00,
2013-09-22 10:42:00,66.5,58.3,29.84,East,84,1.0,4.0,75,0.00,,,0.00,Wunderground v.1.15,2013-09-22 14:42:00,
2013-09-22 10:45:00,66.7,58.9,29.84,East,93,1.0,4.0,76,0.00,,,0.00,Wunderground v.1.15,2013-09-22 14:45:00,
2013-09-22 10:47:00,66.7,58.1,29.84,ENE,77,1.0,4.0,74,0.00,,,0.00,Wunderground v.1.15,2013-09-22 14:47:00,
2013-09-22 10:50:00,66.9,57.2,29.84,ENE,57,2.0,2.0,71,0.00,,,0.00,Wunderground v.1.15,2013-09-22 14:50:00,
2013-09-22 10:51:00,67.0,57.7,29.84,SSE,150,2.0,3.0,72,0.00,,,0.00,Wunderground v.1.15,2013-09-22 14:51:00,
2013-09-22 10:52:00,67.1,57.8,29.84,ENE,61,1.0,3.0,72,0.00,,,0.00,Wunderground v.1.15,2013-09-22 14:52:00,
2013-09-22 10:55:00,67.1,58.2,29.84,East,86,0.0,4.0,73,0.00,,,0.00,Wunderground v.1.15,2013-09-22 14:55:00,
2013-09-22 10:56:00,67.2,57.5,29.84,NW,305,1.0,4.0,71,0.00,,,0.00,Wunderground v.1.15,2013-09-22 14:56:00,
2013-09-22 10:57:00,67.4,58.4,29.84,NNE,20,3.0,4.0,73,0.00,,,0.00,Wunderground v.1.15,2013-09-22 14:57:00,
2013-09-22 11:00:00,67.7,58.0,29.84,NNE,20,0.0,2.0,71,0.00,,,0.00,Wunderground v.1.15,2013-09-22 15:00:00,
2013-09-22 11:01:00,67.8,58.1,29.84,SE,139,2.0,4.0,71,0.00,,,0.00,Wunderground v.1.15,2013-09-22 15:01:00,
2013-09-22 11:02:00,67.9,58.1,29.84,SE,133,1.0,4.0,71,0.00,,,0.00,Wunderground v.1.15,2013-09-22 15:02:00,
2013-09-22 11:05:00,68.3,58.5,29.84,North,355,4.0,6.0,71,0.00,,,0.00,Wunderground v.1.15,2013-09-22 15:05:00,
2013-09-22 11:06:00,68.4,59.4,29.84,NE,56,1.0,6.0,73,0.00,,,0.00,Wunderground v.1.15,2013-09-22 15:06:00,
2013-09-22 11:07:00,68.4,59.0,29.84,ENE,60,1.0,6.0,72,0.00,,,0.00,Wunderground v.1.15,2013-09-22 15:07:00,
2013-09-22 11:08:00,68.5,59.1,29.83,ENE,60,0.0,6.0,72,0.00,,,0.00,Wunderground v.1.15,2013-09-22 15:08:00,
2013-09-22 11:10:00,68.6,59.2,29.84,ENE,70,2.0,2.0,72,0.00,,,0.00,Wunderground v.1.15,2013-09-22 15:10:00,
2013-09-22 11:12:00,68.7,58.1,29.84,ENE,76,2.0,4.0,69,0.00,,,0.00,Wunderground v.1.15,2013-09-22 15:12:00,
2013-09-22 11:13:00,68.7,58.1,29.84,NE,48,2.0,4.0,69,0.00,,,0.00,Wunderground v.1.15,2013-09-22 15:13:00,
2013-09-22 11:15:00,68.8,57.8,29.84,ENE,72,1.0,6.0,68,0.00,,,0.00,Wunderground v.1.15,2013-09-22 15:15:00,
2013-09-22 11:17:00,68.9,57.5,29.83,NE,50,0.0,6.0,67,0.00,,,0.00,Wunderground v.1.15,2013-09-22 15:17:00,
2013-09-22 11:18:00,68.9,57.9,29.84,East,82,1.0,6.0,68,0.00,,,0.00,Wunderground v.1.15,2013-09-22 15:18:00,
2013-09-22 11:20:00,69.1,57.3,29.83,SSW,204,0.0,2.0,66,0.00,,,0.00,Wunderground v.1.15,2013-09-22 15:20:00,
2013-09-22 11:22:00,69.3,58.3,29.83,SW,221,1.0,2.0,68,0.00,,,0.00,Wunderground v.1.15,2013-09-22 15:22:00,
2013-09-22 11:23:00,69.4,58.8,29.83,West,276,1.0,2.0,69,0.00,,,0.00,Wunderground v.1.15,2013-09-22 15:23:00,
2013-09-22 11:26:00,69.5,58.1,29.83,ENE,74,2.0,8.0,67,0.00,,,0.00,Wunderground v.1.15,2013-09-22 15:26:00,
2013-09-22 11:27:00,69.4,57.1,29.83,NE,38,4.0,8.0,65,0.00,,,0.00,Wunderground v.1.15,2013-09-22 15:27:00,
2013-09-22 11:28:00,69.4,57.1,29.83,WSW,257,4.0,8.0,65,0.00,,,0.00,Wunderground v.1.15,2013-09-22 15:28:00,
2013-09-22 11:29:00,69.4,58.0,29.83,NE,56,2.0,8.0,67,0.00,,,0.00,Wunderground v.1.15,2013-09-22 15:29:00,
2013-09-22 11:31:00,69.4,57.5,29.83,SSE,148,2.0,7.0,66,0.00,,,0.00,Wunderground v.1.15,2013-09-22 15:31:00,
2013-09-22 11:33:00,69.4,58.0,29.83,SE,145,1.0,7.0,67,0.00,,,0.00,Wunderground v.1.15,2013-09-22 15:33:00,
2013-09-22 11:34:00,69.5,58.5,29.83,WNW,283,2.0,7.0,68,0.00,,,0.00,Wunderground v.1.15,2013-09-22 15:34:00,
2013-09-22 11:36:00,69.7,58.7,29.83,SSE,156,2.0,7.0,68,0.00,,,0.00,Wunderground v.1.15,2013-09-22 15:36:00,
2013-09-22 11:38:00,69.9,59.3,29.83,NW,315,1.0,7.0,69,0.00,,,0.00,Wunderground v.1.15,2013-09-22 15:38:00,
2013-09-22 11:39:00,69.9,59.3,29.83,NNE,28,0.0,7.0,69,0.00,,,0.00,Wunderground v.1.15,2013-09-22 15:39:00,
2013-09-22 11:40:00,70.0,58.1,29.83,ENE,65,0.0,1.0,66,0.00,,,0.00,Wunderground v.1.15,2013-09-22 15:40:00,
2013-09-22 11:42:00,70.3,59.2,29.83,NE,44,2.0,2.0,68,0.00,,,0.00,Wunderground v.1.15,2013-09-22 15:42:00,
2013-09-22 11:44:00,70.5,57.3,29.83,ENE,70,2.0,3.0,63,0.00,,,0.00,Wunderground v.1.15,2013-09-22 15:44:00,
2013-09-22 11:45:00,70.5,58.6,29.83,NE,41,2.0,3.0,66,0.00,,,0.00,Wunderground v.1.15,2013-09-22 15:45:00,
2013-09-22 11:47:00,70.6,58.3,29.83,WSW,250,0.0,4.0,65,0.00,,,0.00,Wunderground v.1.15,2013-09-22 15:47:00,
2013-09-22 11:49:00,70.8,58.9,29.83,ENE,66,1.0,4.0,66,0.00,,,0.00,Wunderground v.1.15,2013-09-22 15:49:00,
2013-09-22 11:50:00,70.9,59.0,29.83,ENE,66,0.0,1.0,66,0.00,,,0.00,Wunderground v.1.15,2013-09-22 15:50:00,
2013-09-22 11:52:00,71.0,58.2,29.83,NNW,346,1.0,2.0,64,0.00,,,0.00,Wunderground v.1.15,2013-09-22 15:52:00,
2013-09-22 11:54:00,71.1,58.3,29.83,NE,54,1.0,3.0,64,0.00,,,0.00,Wunderground v.1.15,2013-09-22 15:54:00,
2013-09-22 11:55:00,71.1,57.9,29.83,ENE,58,1.0,3.0,63,0.00,,,0.00,Wunderground v.1.15,2013-09-22 15:55:00,
2013-09-22 11:57:00,71.1,57.0,29.83,ENE,61,2.0,6.0,61,0.00,,,0.00,Wunderground v.1.15,2013-09-22 15:57:00,
2013-09-22 11:59:00,71.0,58.2,29.83,NE,38,1.0,6.0,64,0.00,,,0.00,Wunderground v.1.15,2013-09-22 15:59:00,
2013-09-22 12:00:00,71.0,57.8,29.83,North,6,1.0,4.0,63,0.00,,,0.00,Wunderground v.1.15,2013-09-22 16:00:00,
2013-09-22 12:01:00,71.0,57.8,29.83,WNW,288,1.0,4.0,63,0.00,,,0.00,Wunderground v.1.15,2013-09-22 16:01:00,
2013-09-22 12:02:00,71.1,57.4,29.83,NE,49,1.0,5.0,62,0.00,,,0.00,Wunderground v.1.15,2013-09-22 16:02:00,
2013-09-22 12:04:00,71.1,57.9,29.83,NE,49,0.0,5.0,63,0.00,,,0.00,Wunderground v.1.15,2013-09-22 16:04:00,
2013-09-22 12:06:00,71.1,58.3,29.83,SW,231,1.0,5.0,64,0.00,,,0.00,Wunderground v.1.15,2013-09-22 16:06:00,
2013-09-22 12:08:00,71.1,56.5,29.83,NNE,23,2.0,5.0,60,0.00,,,0.00,Wunderground v.1.15,2013-09-22 16:08:00,
2013-09-22 12:10:00,71.1,57.4,29.83,SSW,198,1.0,2.0,62,0.00,,,0.00,Wunderground v.1.15,2013-09-22 16:10:00,
2013-09-22 12:11:00,71.2,57.5,29.83,East,79,0.0,2.0,62,0.00,,,0.00,Wunderground v.1.15,2013-09-22 16:11:00,
2013-09-22 12:12:00,71.2,57.1,29.83,East,92,2.0,4.0,61,0.00,,,0.00,Wunderground v.1.15,2013-09-22 16:12:00,
2013-09-22 12:15:00,71.2,58.0,29.83,SW,233,2.0,4.0,63,0.00,,,0.00,Wunderground v.1.15,2013-09-22 16:15:00,
2013-09-22 12:16:00,71.2,57.5,29.83,NNE,19,1.0,4.0,62,0.00,,,0.00,Wunderground v.1.15,2013-09-22 16:16:00,
2013-09-22 12:18:00,71.3,58.5,29.83,NNE,20,1.0,4.0,64,0.00,,,0.00,Wunderground v.1.15,2013-09-22 16:18:00,
2013-09-22 12:20:00,71.4,57.2,29.83,ENE,64,1.0,2.0,61,0.00,,,0.00,Wunderground v.1.15,2013-09-22 16:20:00,
2013-09-22 12:21:00,71.4,57.7,29.83,ENE,66,1.0,4.0,62,0.00,,,0.00,Wunderground v.1.15,2013-09-22 16:21:00,
2013-09-22 12:22:00,71.4,57.7,29.83,ENE,67,0.0,4.0,62,0.00,,,0.00,Wunderground v.1.15,2013-09-22 16:22:00,
2013-09-22 12:23:00,71.4,58.1,29.83,ENE,70,0.0,4.0,63,0.00,,,0.00,Wunderground v.1.15,2013-09-22 16:23:00,
2013-09-22 12:25:00,71.6,58.3,29.83,North,7,1.0,4.0,63,0.00,,,0.00,Wunderground v.1.15,2013-09-22 16:25:00,
2013-09-22 12:27:00,71.8,59.4,29.83,ENE,72,2.0,4.0,65,0.00,,,0.00,Wunderground v.1.15,2013-09-22 16:27:00,
2013-09-22 12:28:00,71.9,59.1,29.83,ENE,72,1.0,4.0,64,0.00,,,0.00,Wunderground v.1.15,2013-09-22 16:28:00,
2013-09-22 12:30:00,72.2,58.9,29.83,NE,35,1.0,1.0,63,0.00,,,0.00,Wunderground v.1.15,2013-09-22 16:30:00,
2013-09-22 12:32:00,72.3,58.1,29.83,NE,46,1.0,4.0,61,0.00,,,0.00,Wunderground v.1.15,2013-09-22 16:32:00,
2013-09-22 12:33:00,72.4,57.7,29.83,NW,318,6.0,6.0,60,0.00,,,0.00,Wunderground v.1.15,2013-09-22 16:33:00,
2013-09-22 12:35:00,72.3,58.5,29.83,ENE,75,2.0,6.0,62,0.00,,,0.00,Wunderground v.1.15,2013-09-22 16:35:00,
2013-09-22 12:37:00,72.3,58.5,29.83,East,87,0.0,6.0,62,0.00,,,0.00,Wunderground v.1.15,2013-09-22 16:37:00,
2013-09-22 12:38:00,72.3,59.0,29.83,ENE,70,1.0,6.0,63,0.00,,,0.00,Wunderground v.1.15,2013-09-22 16:38:00,
2013-09-22 12:40:00,72.4,58.2,29.83,ESE,110,1.0,2.0,61,0.00,,,0.00,Wunderground v.1.15,2013-09-22 16:40:00,
2013-09-22 12:42:00,72.5,58.7,29.83,East,84,1.0,3.0,62,0.00,,,0.00,Wunderground v.1.15,2013-09-22 16:42:00,
2013-09-22 12:43:00,72.6,59.3,29.83,ENE,72,2.0,3.0,63,0.00,,,0.00,Wunderground v.1.15,2013-09-22 16:43:00,
2013-09-22 12:46:00,72.6,59.3,29.83,ENE,61,1.0,3.0,63,0.00,,,0.00,Wunderground v.1.15,2013-09-22 16:46:00,
2013-09-22 12:47:00,72.6,59.7,29.83,NE,47,2.0,3.0,64,0.00,,,0.00,Wunderground v.1.15,2013-09-22 16:47:00,
2013-09-22 12:48:00,72.6,58.8,29.83,North,354,1.0,3.0,62,0.00,,,0.00,Wunderground v.1.15,2013-09-22 16:48:00,
2013-09-22 12:51:00,72.7,58.5,29.83,SSW,210,0.0,2.0,61,0.00,,,0.00,Wunderground v.1.15,2013-09-22 16:51:00,
2013-09-22 12:52:00,72.8,58.1,29.83,NE,43,3.0,3.0,60,0.00,,,0.00,Wunderground v.1.15,2013-09-22 16:52:00,
2013-09-22 12:53:00,73.0,59.7,29.83,ENE,58,2.0,3.0,63,0.00,,,0.00,Wunderground v.1.15,2013-09-22 16:53:00,
2013-09-22 12:56:00,73.0,58.3,29.83,ENE,62,1.0,5.0,60,0.00,,,0.00,Wunderground v.1.15,2013-09-22 16:56:00,
2013-09-22 12:57:00,73.0,58.8,29.83,East,82,2.0,5.0,61,0.00,,,0.00,Wunderground v.1.15,2013-09-22 16:57:00,
2013-09-22 12:58:00,72.9,56.8,29.83,NE,56,1.0,5.0,57,0.00,,,0.00,Wunderground v.1.15,2013-09-22 16:58:00,
2013-09-22 12:59:00,72.9,57.7,29.83,NE,56,0.0,5.0,59,0.00,,,0.00,Wunderground v.1.15,2013-09-22 16:59:00,
2013-09-22 13:01:00,73.0,58.8,29.83,North,11,0.0,2.0,61,0.00,,,0.00,Wunderground v.1.15,2013-09-22 17:01:00,
2013-09-22 13:02:00,73.1,59.8,29.83,ENE,74,3.0,3.0,63,0.00,,,0.00,Wunderground v.1.15,2013-09-22 17:02:00,
2013-09-22 13:04:00,73.3,59.9,29.83,ENE,77,1.0,3.0,63,0.00,,,0.00,Wunderground v.1.15,2013-09-22 17:04:00,
2013-09-22 13:06:00,73.2,58.5,29.83,ESE,123,1.0,5.0,60,0.00,,,0.00,Wunderground v.1.15,2013-09-22 17:06:00,
2013-09-22 13:07:00,73.2,58.5,29.83,ENE,70,2.0,5.0,60,0.00,,,0.00,Wunderground v.1.15,2013-09-22 17:07:00,
2013-09-22 13:09:00,73.2,58.5,29.83,WNW,291,3.0,5.0,60,0.00,,,0.00,Wunderground v.1.15,2013-09-22 17:09:00,
2013-09-22 13:11:00,73.2,59.4,29.83,ENE,71,3.0,4.0,62,0.00,,,0.00,Wunderground v.1.15,2013-09-22 17:11:00,
2013-09-22 13:12:00,73.2,57.5,29.83,West,269,1.0,4.0,58,0.00,,,0.00,Wunderground v.1.15,2013-09-22 17:12:00,
2013-09-22 13:14:00,73.2,58.5,29.83,NE,51,1.0,4.0,60,0.00,,,0.00,Wunderground v.1.15,2013-09-22 17:14:00,
2013-09-22 13:17:00,73.3,58.1,29.83,ESE,107,3.0,4.0,59,0.00,,,0.00,Wunderground v.1.15,2013-09-22 17:17:00,
2013-09-22 13:19:00,73.2,57.5,29.83,NE,35,1.0,10.0,58,0.00,,,0.00,Wunderground v.1.15,2013-09-22 17:19:00,
2013-09-22 13:22:00,73.3,58.6,29.83,ENE,65,1.0,2.0,60,0.00,,,0.00,Wunderground v.1.15,2013-09-22 17:22:00,
2013-09-22 13:24:00,73.4,59.1,29.82,WSW,243,1.0,2.0,61,0.00,,,0.00,Wunderground v.1.15,2013-09-22 17:24:00,
2013-09-22 13:27:00,73.9,60.1,29.82,NNE,30,2.0,3.0,62,0.00,,,0.00,Wunderground v.1.15,2013-09-22 17:27:00,
2013-09-22 13:29:00,74.0,58.3,29.82,East,83,2.0,4.0,58,0.00,,,0.00,Wunderground v.1.15,2013-09-22 17:29:00,
2013-09-22 13:32:00,74.2,59.9,29.82,East,100,0.0,3.0,61,0.00,,,0.00,Wunderground v.1.15,2013-09-22 17:32:00,
2013-09-22 13:33:00,74.2,59.9,29.82,East,100,0.0,3.0,61,0.00,,,0.00,Wunderground v.1.15,2013-09-22 17:33:00,
2013-09-22 13:34:00,74.3,59.5,29.82,ENE,64,1.0,4.0,60,0.00,,,0.00,Wunderground v.1.15,2013-09-22 17:34:00,
2013-09-22 13:35:00,74.3,58.6,29.82,ESE,103,1.0,4.0,58,0.00,,,0.00,Wunderground v.1.15,2013-09-22 17:35:00,
2013-09-22 13:37:00,74.3,59.0,29.82,WNW,297,3.0,6.0,59,0.00,,,0.00,Wunderground v.1.15,2013-09-22 17:37:00,
2013-09-22 13:38:00,74.3,59.0,29.82,WNW,289,3.0,6.0,59,0.00,,,0.00,Wunderground v.1.15,2013-09-22 17:38:00,
2013-09-22 13:39:00,74.2,58.0,29.82,East,90,1.0,6.0,57,0.00,,,0.00,Wunderground v.1.15,2013-09-22 17:39:00,
2013-09-22 13:40:00,74.1,58.4,29.82,East,86,3.0,4.0,58,0.00,,,0.00,Wunderground v.1.15,2013-09-22 17:40:00,
2013-09-22 13:43:00,74.1,58.9,29.82,NE,36,2.0,6.0,59,0.00,,,0.00,Wunderground v.1.15,2013-09-22 17:43:00,
2013-09-22 13:45:00,74.0,59.2,29.82,ENE,57,1.0,6.0,60,0.00,,,0.00,Wunderground v.1.15,2013-09-22 17:45:00,
2013-09-22 13:48:00,74.1,59.3,29.82,NE,56,0.0,6.0,60,0.00,,,0.00,Wunderground v.1.15,2013-09-22 17:48:00,
2013-09-22 13:50:00,74.3,60.0,29.82,ESE,107,1.0,2.0,61,0.00,,,0.00,Wunderground v.1.15,2013-09-22 17:50:00,
2013-09-22 13:51:00,74.4,58.7,29.82,ENE,69,2.0,3.0,58,0.00,,,0.00,Wunderground v.1.15,2013-09-22 17:51:00,
2013-09-22 13:53:00,74.4,61.0,29.82,SW,236,2.0,6.0,63,0.00,,,0.00,Wunderground v.1.15,2013-09-22 17:53:00,
2013-09-22 13:55:00,74.4,59.1,29.82,NNW,342,5.0,6.0,59,0.00,,,0.00,Wunderground v.1.15,2013-09-22 17:55:00,
2013-09-22 13:56:00,74.4,59.6,29.82,ENE,70,3.0,6.0,60,0.00,,,0.00,Wunderground v.1.15,2013-09-22 17:56:00,
2013-09-22 13:58:00,74.4,59.6,29.82,SE,131,1.0,6.0,60,0.00,,,0.00,Wunderground v.1.15,2013-09-22 17:58:00,
2013-09-22 13:59:00,74.5,59.7,29.82,SE,129,1.0,6.0,60,0.00,,,0.00,Wunderground v.1.15,2013-09-22 17:59:00,
2013-09-22 14:00:00,74.5,59.2,29.81,ENE,58,1.0,3.0,59,0.00,,,0.00,Wunderground v.1.15,2013-09-22 18:00:00,
2013-09-22 14:01:00,74.6,59.3,29.82,ENE,76,1.0,3.0,59,0.00,,,0.00,Wunderground v.1.15,2013-09-22 18:01:00,
2013-09-22 14:04:00,74.9,57.6,29.81,NNW,333,2.0,4.0,55,0.00,,,0.00,Wunderground v.1.15,2013-09-22 18:04:00,
2013-09-22 14:05:00,74.9,58.1,29.81,NE,51,1.0,4.0,56,0.00,,,0.00,Wunderground v.1.15,2013-09-22 18:05:00,
2013-09-22 14:06:00,74.9,59.1,29.81,ENE,60,2.0,4.0,58,0.00,,,0.00,Wunderground v.1.15,2013-09-22 18:06:00,
2013-09-22 14:09:00,75.0,58.7,29.81,West,276,2.0,4.0,57,0.00,,,0.00,Wunderground v.1.15,2013-09-22 18:09:00,
2013-09-22 14:10:00,75.1,58.8,29.82,West,271,1.0,2.0,57,0.00,,,0.00,Wunderground v.1.15,2013-09-22 18:10:00,
2013-09-22 14:12:00,75.1,57.3,29.81,NE,41,1.0,4.0,54,0.00,,,0.00,Wunderground v.1.15,2013-09-22 18:12:00,
2013-09-22 14:15:00,74.9,58.1,29.81,West,274,3.0,5.0,56,0.00,,,0.00,Wunderground v.1.15,2013-09-22 18:15:00,
2013-09-22 14:17:00,74.7,58.0,29.81,East,91,1.0,5.0,56,0.00,,,0.00,Wunderground v.1.15,2013-09-22 18:17:00,
2013-09-22 14:20:00,74.5,57.8,29.81,ENE,64,3.0,3.0,56,0.00,,,0.00,Wunderground v.1.15,2013-09-22 18:20:00,
2013-09-22 14:22:00,74.7,58.9,29.81,ENE,74,1.0,3.0,58,0.00,,,0.00,Wunderground v.1.15,2013-09-22 18:22:00,
2013-09-22 14:25:00,74.9,60.5,29.81,East,98,2.0,3.0,61,0.00,,,0.00,Wunderground v.1.15,2013-09-22 18:25:00,
2013-09-22 14:26:00,75.0,60.6,29.81,East,91,0.0,3.0,61,0.00,,,0.00,Wunderground v.1.15,2013-09-22 18:26:00,
2013-09-22 14:27:00,75.1,58.3,29.81,ENE,69,2.0,6.0,56,0.00,,,0.00,Wunderground v.1.15,2013-09-22 18:27:00,
2013-09-22 14:30:00,75.3,60.5,29.81,ENE,58,1.0,2.0,60,0.00,,,0.00,Wunderground v.1.15,2013-09-22 18:30:00,
2013-09-22 14:31:00,75.4,59.6,29.81,ENE,58,0.0,2.0,58,0.00,,,0.00,Wunderground v.1.15,2013-09-22 18:31:00,
2013-09-22 14:34:00,75.7,59.9,29.81,SW,221,0.0,2.0,58,0.00,,,0.00,Wunderground v.1.15,2013-09-22 18:34:00,
2013-09-22 14:35:00,75.8,58.5,29.81,SW,229,0.0,2.0,55,0.00,,,0.00,Wunderground v.1.15,2013-09-22 18:35:00,
2013-09-22 14:36:00,75.8,58.5,29.81,NNW,330,1.0,2.0,55,0.00,,,0.00,Wunderground v.1.15,2013-09-22 18:36:00,
2013-09-22 14:37:00,75.8,60.4,29.80,ENE,77,1.0,2.0,59,0.00,,,0.00,Wunderground v.1.15,2013-09-22 18:37:00,
2013-09-22 14:39:00,76.0,60.2,29.80,East,85,1.0,2.0,58,0.00,,,0.00,Wunderground v.1.15,2013-09-22 18:39:00,
2013-09-22 14:40:00,76.1,60.2,29.80,East,83,1.0,1.0,58,0.00,,,0.00,Wunderground v.1.15,2013-09-22 18:40:00,
2013-09-22 14:41:00,76.1,60.2,29.80,ENE,76,2.0,2.0,58,0.00,,,0.00,Wunderground v.1.15,2013-09-22 18:41:00,
2013-09-22 14:42:00,76.1,59.3,29.80,North,352,2.0,2.0,56,0.00,,,0.00,Wunderground v.1.15,2013-09-22 18:42:00,
2013-09-22 14:44:00,76.0,59.7,29.80,North,360,1.0,2.0,57,0.00,,,0.00,Wunderground v.1.15,2013-09-22 18:44:00,
2013-09-22 14:45:00,76.0,60.6,29.80,NNE,12,1.0,2.0,59,0.00,,,0.00,Wunderground v.1.15,2013-09-22 18:45:00,
2013-09-22 14:46:00,76.0,59.2,29.80,NE,44,1.0,2.0,56,0.00,,,0.00,Wunderground v.1.15,2013-09-22 18:46:00,
2013-09-22 14:47:00,76.1,59.3,29.80,North,5,1.0,2.0,56,0.00,,,0.00,Wunderground v.1.15,2013-09-22 18:47:00,
2013-09-22 14:49:00,76.2,59.4,29.80,WSW,256,1.0,3.0,56,0.00,,,0.00,Wunderground v.1.15,2013-09-22 18:49:00,
2013-09-22 14:51:00,76.2,59.4,29.80,NE,56,2.0,2.0,56,0.00,,,0.00,Wunderground v.1.15,2013-09-22 18:51:00,
2013-09-22 14:52:00,76.3,60.9,29.80,SW,229,0.0,2.0,59,0.00,,,0.00,Wunderground v.1.15,2013-09-22 18:52:00,
2013-09-22 14:54:00,76.4,60.5,29.80,East,79,2.0,3.0,58,0.00,,,0.00,Wunderground v.1.15,2013-09-22 18:54:00,
2013-09-22 14:56:00,76.2,58.9,29.80,West,278,3.0,3.0,55,0.00,,,0.00,Wunderground v.1.15,2013-09-22 18:56:00,
2013-09-22 14:57:00,76.1,60.2,29.80,ESE,123,1.0,3.0,58,0.00,,,0.00,Wunderground v.1.15,2013-09-22 18:57:00,
2013-09-22 14:59:00,76.0,60.2,29.80,South,174,2.0,3.0,58,0.00,,,0.00,Wunderground v.1.15,2013-09-22 18:59:00,
2013-09-22 15:01:00,75.8,59.0,29.80,SSE,150,0.0,3.0,56,0.00,,,0.00,Wunderground v.1.15,2013-09-22 19:01:00,
2013-09-22 15:02:00,75.7,58.9,29.80,SW,217,1.0,3.0,56,0.00,,,0.00,Wunderground v.1.15,2013-09-22 19:02:00,
2013-09-22 15:05:00,75.6,60.3,29.80,SW,217,0.0,3.0,59,0.00,,,0.00,Wunderground v.1.15,2013-09-22 19:05:00,
2013-09-22 15:06:00,75.7,60.4,29.80,SW,217,0.0,3.0,59,0.00,,,0.00,Wunderground v.1.15,2013-09-22 19:06:00,
2013-09-22 15:08:00,75.7,59.4,29.80,East,98,1.0,3.0,57,0.00,,,0.00,Wunderground v.1.15,2013-09-22 19:08:00,
2013-09-22 15:10:00,75.7,59.9,29.80,ENE,74,0.0,1.0,58,0.00,,,0.00,Wunderground v.1.15,2013-09-22 19:10:00,
2013-09-22 15:11:00,75.8,60.9,29.80,ENE,74,1.0,1.0,60,0.00,,,0.00,Wunderground v.1.15,2013-09-22 19:11:00,
2013-09-22 15:12:00,75.7,60.4,29.80,NE,51,1.0,3.0,59,0.00,,,0.00,Wunderground v.1.15,2013-09-22 19:12:00,
2013-09-22 15:13:00,75.7,60.4,29.80,WNW,296,3.0,4.0,59,0.00,,,0.00,Wunderground v.1.15,2013-09-22 19:13:00,
2013-09-22 15:15:00,75.5,57.7,29.80,NE,51,1.0,4.0,54,0.00,,,0.00,Wunderground v.1.15,2013-09-22 19:15:00,
2013-09-22 15:16:00,75.4,59.1,29.80,NE,51,1.0,4.0,57,0.00,,,0.00,Wunderground v.1.15,2013-09-22 19:16:00,
2013-09-22 15:17:00,75.4,59.1,29.80,East,82,0.0,4.0,57,0.00,,,0.00,Wunderground v.1.15,2013-09-22 19:17:00,
2013-09-22 15:19:00,75.4,58.1,29.80,SE,131,0.0,4.0,55,0.00,,,0.00,Wunderground v.1.15,2013-09-22 19:19:00,
2013-09-22 15:20:00,75.5,60.2,29.80,NNW,328,1.0,2.0,59,0.00,,,0.00,Wunderground v.1.15,2013-09-22 19:20:00,
2013-09-22 15:21:00,75.6,61.2,29.80,NW,318,2.0,2.0,61,0.00,,,0.00,Wunderground v.1.15,2013-09-22 19:21:00,
2013-09-22 15:22:00,75.6,61.2,29.80,North,357,0.0,3.0,61,0.00,,,0.00,Wunderground v.1.15,2013-09-22 19:22:00,
2013-09-22 15:24:00,75.8,60.0,29.80,NW,307,0.0,3.0,58,0.00,,,0.00,Wunderground v.1.15,2013-09-22 19:24:00,
2013-09-22 15:26:00,75.8,59.0,29.80,NNE,32,1.0,3.0,56,0.00,,,0.00,Wunderground v.1.15,2013-09-22 19:26:00,
2013-09-22 15:27:00,75.8,59.5,29.80,East,86,2.0,3.0,57,0.00,,,0.00,Wunderground v.1.15,2013-09-22 19:27:00,
2013-09-22 15:29:00,75.7,59.9,29.80,SW,214,0.0,3.0,58,0.00,,,0.00,Wunderground v.1.15,2013-09-22 19:29:00,
2013-09-22 15:31:00,75.7,60.4,29.80,ENE,71,0.0,1.0,59,0.00,,,0.00,Wunderground v.1.15,2013-09-22 19:31:00,
2013-09-22 15:32:00,75.7,61.3,29.80,ENE,75,1.0,1.0,61,0.00,,,0.00,Wunderground v.1.15,2013-09-22 19:32:00,
2013-09-22 15:34:00,75.5,61.1,29.80,ENE,74,0.0,3.0,61,0.00,,,0.00,Wunderground v.1.15,2013-09-22 19:34:00,
2013-09-22 15:36:00,75.3,59.5,29.80,ENE,73,1.0,3.0,58,0.00,,,0.00,Wunderground v.1.15,2013-09-22 19:36:00,
2013-09-22 15:37:00,75.1,59.8,29.80,ENE,73,0.0,3.0,59,0.00,,,0.00,Wunderground v.1.15,2013-09-22 19:37:00,
2013-09-22 15:40:00,74.8,60.4,29.80,ENE,73,0.0,0.0,61,0.00,,,0.00,Wunderground v.1.15,2013-09-22 19:40:00,
2013-09-22 15:41:00,74.6,59.8,29.80,ENE,75,0.0,0.0,60,0.00,,,0.00,Wunderground v.1.15,2013-09-22 19:41:00,
2013-09-22 15:42:00,74.5,59.2,29.80,ENE,75,0.0,0.0,59,0.00,,,0.00,Wunderground v.1.15,2013-09-22 19:42:00,
2013-09-22 15:44:00,74.4,60.5,29.80,WSW,248,1.0,1.0,62,0.00,,,0.00,Wunderground v.1.15,2013-09-22 19:44:00,
2013-09-22 15:45:00,74.3,59.0,29.80,South,172,0.0,1.0,59,0.00,,,0.00,Wunderground v.1.15,2013-09-22 19:45:00,
2013-09-22 15:46:00,74.2,59.9,29.80,South,172,0.0,1.0,61,0.00,,,0.00,Wunderground v.1.15,2013-09-22 19:46:00,
2013-09-22 15:47:00,74.2,59.4,29.80,South,172,0.0,1.0,60,0.00,,,0.00,Wunderground v.1.15,2013-09-22 19:47:00,
2013-09-22 15:49:00,74.2,59.4,29.80,South,172,0.0,1.0,60,0.00,,,0.00,Wunderground v.1.15,2013-09-22 19:49:00,
2013-09-22 15:51:00,74.3,61.3,29.80,NE,52,1.0,2.0,64,0.00,,,0.00,Wunderground v.1.15,2013-09-22 19:51:00,
2013-09-22 15:52:00,74.3,59.5,29.79,NE,51,0.0,2.0,60,0.00,,,0.00,Wunderground v.1.15,2013-09-22 19:52:00,
2013-09-22 15:54:00,74.2,59.4,29.79,NNE,13,1.0,2.0,60,0.00,,,0.00,Wunderground v.1.15,2013-09-22 19:54:00,
2013-09-22 15:56:00,74.1,60.2,29.80,East,82,1.0,4.0,62,0.00,,,0.00,Wunderground v.1.15,2013-09-22 19:56:00,
2013-09-22 15:57:00,74.1,58.9,29.80,SSE,160,0.0,4.0,59,0.00,,,0.00,Wunderground v.1.15,2013-09-22 19:57:00,
2013-09-22 16:00:00,74.0,58.8,29.80,SW,222,0.0,1.0,59,0.00,,,0.00,Wunderground v.1.15,2013-09-22 20:00:00,
2013-09-22 16:02:00,74.1,58.4,29.80,NNE,25,0.0,2.0,58,0.00,,,0.00,Wunderground v.1.15,2013-09-22 20:02:00,
2013-09-22 16:05:00,74.2,59.9,29.80,NE,51,0.0,2.0,61,0.00,,,0.00,Wunderground v.1.15,2013-09-22 20:05:00,
2013-09-22 16:07:00,74.2,59.9,29.80,ENE,68,0.0,2.0,61,0.00,,,0.00,Wunderground v.1.15,2013-09-22 20:07:00,
2013-09-22 16:10:00,74.0,59.7,29.80,SSW,208,2.0,2.0,61,0.00,,,0.00,Wunderground v.1.15,2013-09-22 20:10:00,
2013-09-22 16:12:00,74.0,60.6,29.80,SSW,200,0.0,3.0,63,0.00,,,0.00,Wunderground v.1.15,2013-09-22 20:12:00,
2013-09-22 16:13:00,73.9,61.4,29.80,NE,41,1.0,3.0,65,0.00,,,0.00,Wunderground v.1.15,2013-09-22 20:13:00,
2013-09-22 16:16:00,73.8,60.0,29.80,ESE,105,0.0,3.0,62,0.00,,,0.00,Wunderground v.1.15,2013-09-22 20:16:00,
2013-09-22 16:17:00,73.6,61.1,29.80,East,82,2.0,3.0,65,0.00,,,0.00,Wunderground v.1.15,2013-09-22 20:17:00,
2013-09-22 16:18:00,73.3,60.8,29.79,East,82,0.0,3.0,65,0.00,,,0.00,Wunderground v.1.15,2013-09-22 20:18:00,
2013-09-22 16:21:00,72.9,58.2,29.80,ENE,75,2.0,2.0,60,0.00,,,0.00,Wunderground v.1.15,2013-09-22 20:21:00,
2013-09-22 16:22:00,72.8,59.0,29.80,ENE,61,1.0,2.0,62,0.00,,,0.00,Wunderground v.1.15,2013-09-22 20:22:00,
2013-09-22 16:23:00,72.7,58.0,29.80,ENE,60,1.0,2.0,60,0.00,,,0.00,Wunderground v.1.15,2013-09-22 20:23:00,
2013-09-22 16:26:00,72.7,58.9,29.79,NE,44,0.0,2.0,62,0.00,,,0.00,Wunderground v.1.15,2013-09-22 20:26:00,
2013-09-22 16:27:00,72.7,58.5,29.79,NNE,32,0.0,2.0,61,0.00,,,0.00,Wunderground v.1.15,2013-09-22 20:27:00,
2013-09-22 16:29:00,72.9,59.6,29.80,NNE,30,0.0,2.0,63,0.00,,,0.00,Wunderground v.1.15,2013-09-22 20:29:00,
2013-09-22 16:31:00,73.0,59.2,29.80,ENE,61,0.0,0.0,62,0.00,,,0.00,Wunderground v.1.15,2013-09-22 20:31:00,
2013-09-22 16:32:00,73.1,59.3,29.80,WNW,285,0.0,0.0,62,0.00,,,0.00,Wunderground v.1.15,2013-09-22 20:32:00,
2013-09-22 16:34:00,73.2,59.4,29.80,ENE,61,3.0,5.0,62,0.00,,,0.00,Wunderground v.1.15,2013-09-22 20:34:00,
2013-09-22 16:36:00,73.2,58.0,29.80,East,95,0.0,5.0,59,0.00,,,0.00,Wunderground v.1.15,2013-09-22 20:36:00,
2013-09-22 16:37:00,73.3,59.0,29.80,West,281,2.0,5.0,61,0.00,,,0.00,Wunderground v.1.15,2013-09-22 20:37:00,
2013-09-22 16:39:00,73.3,58.1,29.80,NE,37,0.0,5.0,59,0.00,,,0.00,Wunderground v.1.15,2013-09-22 20:39:00,
2013-09-22 16:41:00,73.3,57.1,29.80,NNE,25,4.0,5.0,57,0.00,,,0.00,Wunderground v.1.15,2013-09-22 20:41:00,
2013-09-22 16:42:00,73.2,58.5,29.80,ENE,76,2.0,5.0,60,0.00,,,0.00,Wunderground v.1.15,2013-09-22 20:42:00,
2013-09-22 16:44:00,73.2,59.4,29.80,ENE,77,1.0,5.0,62,0.00,,,0.00,Wunderground v.1.15,2013-09-22 20:44:00,
2013-09-22 16:46:00,72.9,57.3,29.80,SE,132,1.0,5.0,58,0.00,,,0.00,Wunderground v.1.15,2013-09-22 20:46:00,
2013-09-22 16:47:00,72.8,57.2,29.80,West,264,1.0,5.0,58,0.00,,,0.00,Wunderground v.1.15,2013-09-22 20:47:00,
2013-09-22 16:49:00,72.7,58.5,29.80,West,264,0.0,5.0,61,0.00,,,0.00,Wunderground v.1.15,2013-09-22 20:49:00,
2013-09-22 16:51:00,72.6,57.4,29.80,ENE,70,0.0,5.0,59,0.00,,,0.00,Wunderground v.1.15,2013-09-22 20:51:00,
2013-09-22 16:53:00,72.7,58.0,29.80,NE,50,2.0,5.0,60,0.00,,,0.00,Wunderground v.1.15,2013-09-22 20:53:00,
2013-09-22 16:54:00,72.8,58.1,29.80,ESE,119,1.0,5.0,60,0.00,,,0.00,Wunderground v.1.15,2013-09-22 20:54:00,
2013-09-22 16:57:00,73.0,57.8,29.80,SW,229,1.0,5.0,59,0.00,,,0.00,Wunderground v.1.15,2013-09-22 20:57:00,
2013-09-22 16:58:00,73.2,58.5,29.80,ENE,59,2.0,5.0,60,0.00,,,0.00,Wunderground v.1.15,2013-09-22 20:58:00,
2013-09-22 16:59:00,73.3,59.0,29.80,East,86,3.0,5.0,61,0.00,,,0.00,Wunderground v.1.15,2013-09-22 20:59:00,
2013-09-22 17:02:00,73.4,59.1,29.80,NNE,20,2.0,4.0,61,0.00,,,0.00,Wunderground v.1.15,2013-09-22 21:02:00,
2013-09-22 17:03:00,73.5,60.1,29.80,NNW,345,0.0,4.0,63,0.00,,,0.00,Wunderground v.1.15,2013-09-22 21:03:00,
2013-09-22 17:04:00,73.5,57.8,29.80,SSE,152,0.0,4.0,58,0.00,,,0.00,Wunderground v.1.15,2013-09-22 21:04:00,
2013-09-22 17:07:00,73.6,59.3,29.80,NNE,25,0.0,4.0,61,0.00,,,0.00,Wunderground v.1.15,2013-09-22 21:07:00,
2013-09-22 17:08:00,73.5,58.8,29.80,NNE,25,0.0,4.0,60,0.00,,,0.00,Wunderground v.1.15,2013-09-22 21:08:00,
2013-09-22 17:09:00,73.5,59.2,29.80,NNE,24,0.0,4.0,61,0.00,,,0.00,Wunderground v.1.15,2013-09-22 21:09:00,
2013-09-22 17:12:00,73.3,59.0,29.80,North,8,2.0,2.0,61,0.00,,,0.00,Wunderground v.1.15,2013-09-22 21:12:00,
2013-09-22 17:13:00,73.3,60.4,29.80,North,8,0.0,2.0,64,0.00,,,0.00,Wunderground v.1.15,2013-09-22 21:13:00,
2013-09-22 17:15:00,73.0,58.3,29.80,North,6,0.0,2.0,60,0.00,,,0.00,Wunderground v.1.15,2013-09-22 21:15:00,
2013-09-22 17:17:00,72.8,59.0,29.80,North,1,0.0,2.0,62,0.00,,,0.00,Wunderground v.1.15,2013-09-22 21:17:00,
2013-09-22 17:18:00,72.7,60.3,29.80,North,5,0.0,2.0,65,0.00,,,0.00,Wunderground v.1.15,2013-09-22 21:18:00,
2013-09-22 17:19:00,72.7,59.4,29.80,North,4,0.0,2.0,63,0.00,,,0.00,Wunderground v.1.15,2013-09-22 21:19:00,
2013-09-22 17:20:00,72.5,59.2,29.80,ENE,61,1.0,2.0,63,0.00,,,0.00,Wunderground v.1.15,2013-09-22 21:20:00,
2013-09-22 17:22:00,72.4,58.6,29.80,NNE,30,1.0,3.0,62,0.00,,,0.00,Wunderground v.1.15,2013-09-22 21:22:00,
2013-09-22 17:23:00,72.3,57.6,29.80,NW,324,1.0,3.0,60,0.00,,,0.00,Wunderground v.1.15,2013-09-22 21:23:00,
2013-09-22 17:24:00,72.3,58.1,29.80,East,79,0.0,3.0,61,0.00,,,0.00,Wunderground v.1.15,2013-09-22 21:24:00,
2013-09-22 17:25:00,72.4,58.6,29.80,West,276,1.0,3.0,62,0.00,,,0.00,Wunderground v.1.15,2013-09-22 21:25:00,
2013-09-22 17:27:00,72.4,59.1,29.80,East,79,0.0,3.0,63,0.00,,,0.00,Wunderground v.1.15,2013-09-22 21:27:00,
2013-09-22 17:28:00,72.3,59.0,29.80,East,79,0.0,3.0,63,0.00,,,0.00,Wunderground v.1.15,2013-09-22 21:28:00,
2013-09-22 17:29:00,72.2,58.9,29.80,East,79,0.0,3.0,63,0.00,,,0.00,Wunderground v.1.15,2013-09-22 21:29:00,
2013-09-22 17:30:00,72.2,58.9,29.80,East,79,0.0,1.0,63,0.00,,,0.00,Wunderground v.1.15,2013-09-22 21:30:00,
2013-09-22 17:32:00,72.1,60.1,29.80,East,79,0.0,1.0,66,0.00,,,0.00,Wunderground v.1.15,2013-09-22 21:32:00,
2013-09-22 17:33:00,72.0,59.6,29.80,East,79,0.0,1.0,65,0.00,,,0.00,Wunderground v.1.15,2013-09-22 21:33:00,
2013-09-22 17:35:00,71.9,61.6,29.80,East,79,0.0,1.0,70,0.00,,,0.00,Wunderground v.1.15,2013-09-22 21:35:00,
2013-09-22 17:37:00,71.8,59.0,29.80,North,349,1.0,1.0,64,0.00,,,0.00,Wunderground v.1.15,2013-09-22 21:37:00,
2013-09-22 17:39:00,71.7,59.7,29.80,NE,36,0.0,1.0,66,0.00,,,0.00,Wunderground v.1.15,2013-09-22 21:39:00,
2013-09-22 17:40:00,71.7,58.9,29.81,ENE,66,1.0,1.0,64,0.00,,,0.00,Wunderground v.1.15,2013-09-22 21:40:00,
2013-09-22 17:41:00,71.7,59.3,29.81,ENE,67,0.0,1.0,65,0.00,,,0.00,Wunderground v.1.15,2013-09-22 21:41:00,
2013-09-22 17:42:00,71.6,59.2,29.81,ENE,71,0.0,1.0,65,0.00,,,0.00,Wunderground v.1.15,2013-09-22 21:42:00,
2013-09-22 17:44:00,71.5,59.1,29.81,WSW,248,0.0,1.0,65,0.00,,,0.00,Wunderground v.1.15,2013-09-22 21:44:00,
2013-09-22 17:45:00,71.5,59.1,29.81,WSW,248,0.0,1.0,65,0.00,,,0.00,Wunderground v.1.15,2013-09-22 21:45:00,
2013-09-22 17:46:00,71.6,58.8,29.81,WSW,240,0.0,1.0,64,0.00,,,0.00,Wunderground v.1.15,2013-09-22 21:46:00,
2013-09-22 17:47:00,71.5,59.1,29.81,WSW,240,0.0,1.0,65,0.00,,,0.00,Wunderground v.1.15,2013-09-22 21:47:00,
2013-09-22 17:49:00,71.5,59.1,29.81,SSW,212,0.0,1.0,65,0.00,,,0.00,Wunderground v.1.15,2013-09-22 21:49:00,
2013-09-22 17:50:00,71.4,59.0,29.81,SSW,212,0.0,0.0,65,0.00,,,0.00,Wunderground v.1.15,2013-09-22 21:50:00,
2013-09-22 17:51:00,71.4,59.9,29.81,SSW,212,0.0,0.0,67,0.00,,,0.00,Wunderground v.1.15,2013-09-22 21:51:00,
2013-09-22 17:53:00,71.4,59.4,29.81,SSW,212,0.0,0.0,66,0.00,,,0.00,Wunderground v.1.15,2013-09-22 21:53:00,
2013-09-22 17:54:00,71.4,59.0,29.81,SSW,212,0.0,0.0,65,0.00,,,0.00,Wunderground v.1.15,2013-09-22 21:54:00,
2013-09-22 17:55:00,71.3,59.4,29.81,SE,134,0.0,0.0,66,0.00,,,0.00,Wunderground v.1.15,2013-09-22 21:55:00,
2013-09-22 17:56:00,71.2,59.7,29.81,East,99,0.0,0.0,67,0.00,,,0.00,Wunderground v.1.15,2013-09-22 21:56:00,
2013-09-22 17:58:00,71.2,59.3,29.81,East,99,0.0,0.0,66,0.00,,,0.00,Wunderground v.1.15,2013-09-22 21:58:00,
2013-09-22 17:59:00,71.1,59.6,29.81,East,98,0.0,0.0,67,0.00,,,0.00,Wunderground v.1.15,2013-09-22 21:59:00,
2013-09-22 18:00:00,71.0,59.9,29.81,East,98,0.0,0.0,68,0.00,,,0.00,Wunderground v.1.15,2013-09-22 22:00:00,
2013-09-22 18:01:00,71.0,59.5,29.81,East,99,0.0,0.0,67,0.00,,,0.00,Wunderground v.1.15,2013-09-22 22:01:00,
2013-09-22 18:03:00,70.9,59.8,29.81,East,99,0.0,0.0,68,0.00,,,0.00,Wunderground v.1.15,2013-09-22 22:03:00,
2013-09-22 18:04:00,70.8,58.9,29.81,East,98,0.0,0.0,66,0.00,,,0.00,Wunderground v.1.15,2013-09-22 22:04:00,
2013-09-22 18:06:00,70.7,59.2,29.81,East,99,0.0,0.0,67,0.00,,,0.00,Wunderground v.1.15,2013-09-22 22:06:00,
2013-09-22 18:08:00,70.6,59.9,29.81,East,98,0.0,0.0,69,0.00,,,0.00,Wunderground v.1.15,2013-09-22 22:08:00,
2013-09-22 18:10:00,70.5,59.8,29.81,East,98,0.0,0.0,69,0.00,,,0.00,Wunderground v.1.15,2013-09-22 22:10:00,
2013-09-22 18:11:00,70.4,59.3,29.81,East,98,0.0,0.0,68,0.00,,,0.00,Wunderground v.1.15,2013-09-22 22:11:00,
2013-09-22 18:13:00,70.3,58.8,29.81,East,99,0.0,0.0,67,0.00,,,0.00,Wunderground v.1.15,2013-09-22 22:13:00,
2013-09-22 18:15:00,70.2,59.1,29.81,East,98,0.0,0.0,68,0.00,,,0.00,Wunderground v.1.15,2013-09-22 22:15:00,
2013-09-22 18:16:00,70.2,58.3,29.81,East,98,0.0,0.0,66,0.00,,,0.00,Wunderground v.1.15,2013-09-22 22:16:00,
2013-09-22 18:17:00,70.1,59.9,29.81,East,99,0.0,0.0,70,0.00,,,0.00,Wunderground v.1.15,2013-09-22 22:17:00,
2013-09-22 18:18:00,70.1,59.0,29.82,East,98,0.0,0.0,68,0.00,,,0.00,Wunderground v.1.15,2013-09-22 22:18:00,
2013-09-22 18:20:00,70.1,59.5,29.81,East,99,0.0,0.0,69,0.00,,,0.00,Wunderground v.1.15,2013-09-22 22:20:00,
2013-09-22 18:21:00,69.9,59.7,29.82,East,98,0.0,0.0,70,0.00,,,0.00,Wunderground v.1.15,2013-09-22 22:21:00,
2013-09-22 18:22:00,69.9,60.5,29.82,East,98,0.0,0.0,72,0.00,,,0.00,Wunderground v.1.15,2013-09-22 22:22:00,
2013-09-22 18:24:00,69.8,59.6,29.81,East,100,0.0,0.0,70,0.00,,,0.00,Wunderground v.1.15,2013-09-22 22:24:00,
2013-09-22 18:25:00,69.7,60.3,29.81,East,98,0.0,0.0,72,0.00,,,0.00,Wunderground v.1.15,2013-09-22 22:25:00,
2013-09-22 18:26:00,69.6,60.6,29.81,East,98,0.0,0.0,73,0.00,,,0.00,Wunderground v.1.15,2013-09-22 22:26:00,
2013-09-22 18:27:00,69.5,60.1,29.81,East,99,0.0,0.0,72,0.00,,,0.00,Wunderground v.1.15,2013-09-22 22:27:00,
2013-09-22 18:29:00,69.3,60.7,29.81,East,99,0.0,0.0,74,0.00,,,0.00,Wunderground v.1.15,2013-09-22 22:29:00,
2013-09-22 18:30:00,69.2,60.6,29.81,East,98,0.0,0.0,74,0.00,,,0.00,Wunderground v.1.15,2013-09-22 22:30:00,
2013-09-22 18:31:00,69.0,60.4,29.81,East,99,0.0,0.0,74,0.00,,,0.00,Wunderground v.1.15,2013-09-22 22:31:00,
2013-09-22 18:32:00,69.0,60.0,29.81,East,99,0.0,0.0,73,0.00,,,0.00,Wunderground v.1.15,2013-09-22 22:32:00,
2013-09-22 18:34:00,68.8,60.9,29.81,East,98,0.0,0.0,76,0.00,,,0.00,Wunderground v.1.15,2013-09-22 22:34:00,
2013-09-22 18:35:00,68.7,60.1,29.81,East,99,0.0,0.0,74,0.00,,,0.00,Wunderground v.1.15,2013-09-22 22:35:00,
2013-09-22 18:37:00,68.5,60.3,29.81,East,98,0.0,0.0,75,0.00,,,0.00,Wunderground v.1.15,2013-09-22 22:37:00,
2013-09-22 18:39:00,68.3,60.1,29.81,East,98,0.0,0.0,75,0.00,,,0.00,Wunderground v.1.15,2013-09-22 22:39:00,
2013-09-22 18:40:00,68.2,60.3,29.81,East,99,0.0,0.0,76,0.00,,,0.00,Wunderground v.1.15,2013-09-22 22:40:00,
2013-09-22 18:42:00,68.1,60.2,29.81,East,99,0.0,0.0,76,0.00,,,0.00,Wunderground v.1.15,2013-09-22 22:42:00,
2013-09-22 18:44:00,67.9,60.4,29.81,East,99,0.0,0.0,77,0.00,,,0.00,Wunderground v.1.15,2013-09-22 22:44:00,
2013-09-22 18:45:00,67.8,60.0,29.81,East,101,0.0,0.0,76,0.00,,,0.00,Wunderground v.1.15,2013-09-22 22:45:00,
2013-09-22 18:47:00,67.7,60.2,29.81,East,101,0.0,0.0,77,0.00,,,0.00,Wunderground v.1.15,2013-09-22 22:47:00,
2013-09-22 18:49:00,67.5,60.4,29.81,East,100,0.0,0.0,78,0.00,,,0.00,Wunderground v.1.15,2013-09-22 22:49:00,
2013-09-22 18:50:00,67.4,60.3,29.81,East,100,0.0,0.0,78,0.00,,,0.00,Wunderground v.1.15,2013-09-22 22:50:00,
2013-09-22 18:52:00,67.2,60.1,29.81,East,101,0.0,0.0,78,0.00,,,0.00,Wunderground v.1.15,2013-09-22 22:52:00,
2013-09-22 18:53:00,67.2,60.1,29.81,East,100,0.0,0.0,78,0.00,,,0.00,Wunderground v.1.15,2013-09-22 22:53:00,
2013-09-22 18:54:00,67.1,60.4,29.81,East,101,0.0,0.0,79,0.00,,,0.00,Wunderground v.1.15,2013-09-22 22:54:00,
2013-09-22 18:55:00,67.0,59.9,29.81,East,100,0.0,0.0,78,0.00,,,0.00,Wunderground v.1.15,2013-09-22 22:55:00,
2013-09-22 18:58:00,66.8,60.1,29.82,East,101,0.0,0.0,79,0.00,,,0.00,Wunderground v.1.15,2013-09-22 22:58:00,
2013-09-22 18:59:00,66.7,60.0,29.82,East,100,0.0,0.0,79,0.00,,,0.00,Wunderground v.1.15,2013-09-22 22:59:00,
2013-09-22 19:00:00,66.6,60.2,29.82,East,101,0.0,0.0,80,0.00,,,0.00,Wunderground v.1.15,2013-09-22 23:00:00,
2013-09-22 19:04:00,66.3,59.9,29.82,East,101,0.0,0.0,80,0.00,,,0.00,Wunderground v.1.15,2013-09-22 23:04:00,
2013-09-22 19:05:00,66.1,59.7,29.82,East,101,0.0,0.0,80,0.00,,,0.00,Wunderground v.1.15,2013-09-22 23:05:00,
2013-09-22 19:09:00,65.8,59.8,29.82,East,101,0.0,0.0,81,0.00,,,0.00,Wunderground v.1.15,2013-09-22 23:09:00,
2013-09-22 19:10:00,65.8,59.8,29.81,East,101,0.0,0.0,81,0.00,,,0.00,Wunderground v.1.15,2013-09-22 23:10:00,
2013-09-22 19:15:00,65.3,59.7,29.81,East,101,0.0,0.0,82,0.00,,,0.00,Wunderground v.1.15,2013-09-22 23:15:00,
2013-09-22 19:20:00,64.8,59.2,29.82,East,101,0.0,0.0,82,0.00,,,0.00,Wunderground v.1.15,2013-09-22 23:20:00,
2013-09-22 19:25:00,64.3,59.0,29.82,East,100,0.0,0.0,83,0.00,,,0.00,Wunderground v.1.15,2013-09-22 23:25:00,
2013-09-22 19:30:00,63.9,58.6,29.82,East,100,0.0,0.0,83,0.00,,,0.00,Wunderground v.1.15,2013-09-22 23:30:00,
2013-09-22 19:31:00,63.8,58.5,29.82,East,100,0.0,0.0,83,0.00,,,0.00,Wunderground v.1.15,2013-09-22 23:31:00,
2013-09-22 19:35:00,63.4,58.5,29.82,East,100,0.0,0.0,84,0.00,,,0.00,Wunderground v.1.15,2013-09-22 23:35:00,
2013-09-22 19:36:00,63.4,58.5,29.82,East,101,0.0,0.0,84,0.00,,,0.00,Wunderground v.1.15,2013-09-22 23:36:00,
2013-09-22 19:40:00,63.1,58.5,29.82,East,101,0.0,0.0,85,0.00,,,0.00,Wunderground v.1.15,2013-09-22 23:40:00,
2013-09-22 19:41:00,63.0,58.4,29.82,East,101,0.0,0.0,85,0.00,,,0.00,Wunderground v.1.15,2013-09-22 23:41:00,
2013-09-22 19:45:00,62.7,58.1,29.82,East,100,0.0,0.0,85,0.00,,,0.00,Wunderground v.1.15,2013-09-22 23:45:00,
2013-09-22 19:46:00,62.7,58.1,29.82,East,100,0.0,0.0,85,0.00,,,0.00,Wunderground v.1.15,2013-09-22 23:46:00,
2013-09-22 19:47:00,62.5,57.9,29.82,East,101,0.0,0.0,85,0.00,,,0.00,Wunderground v.1.15,2013-09-22 23:47:00,
2013-09-22 19:51:00,62.2,58.0,29.82,East,101,0.0,0.0,86,0.00,,,0.00,Wunderground v.1.15,2013-09-22 23:51:00,
2013-09-22 19:52:00,62.2,58.0,29.82,East,101,0.0,0.0,86,0.00,,,0.00,Wunderground v.1.15,2013-09-22 23:52:00,
2013-09-22 19:56:00,61.8,57.9,29.82,East,100,0.0,0.0,87,0.00,,,0.00,Wunderground v.1.15,2013-09-22 23:56:00,
2013-09-22 19:57:00,61.8,57.9,29.82,East,100,0.0,0.0,87,0.00,,,0.00,Wunderground v.1.15,2013-09-22 23:57:00,
2013-09-22 19:58:00,61.8,57.9,29.82,East,100,0.0,0.0,87,0.00,,,0.00,Wunderground v.1.15,2013-09-22 23:58:00,
2013-09-22 20:01:00,61.5,57.6,29.83,East,101,0.0,0.0,87,0.00,,,0.00,Wunderground v.1.15,2013-09-23 00:01:00,
2013-09-22 20:02:00,61.5,57.6,29.83,East,100,0.0,0.0,87,0.00,,,0.00,Wunderground v.1.15,2013-09-23 00:02:00,
2013-09-22 20:04:00,61.3,57.7,29.83,East,100,0.0,0.0,88,0.00,,,0.00,Wunderground v.1.15,2013-09-23 00:04:00,
2013-09-22 20:06:00,61.2,57.6,29.83,East,100,0.0,0.0,88,0.00,,,0.00,Wunderground v.1.15,2013-09-23 00:06:00,
2013-09-22 20:07:00,61.2,57.6,29.83,East,100,0.0,0.0,88,0.00,,,0.00,Wunderground v.1.15,2013-09-23 00:07:00,
2013-09-22 20:09:00,61.0,57.4,29.83,East,101,0.0,0.0,88,0.00,,,0.00,Wunderground v.1.15,2013-09-23 00:09:00,
2013-09-22 20:11:00,61.0,57.4,29.83,East,100,0.0,0.0,88,0.00,,,0.00,Wunderground v.1.15,2013-09-23 00:11:00,
2013-09-22 20:12:00,60.9,57.3,29.83,East,100,0.0,0.0,88,0.00,,,0.00,Wunderground v.1.15,2013-09-23 00:12:00,
2013-09-22 20:14:00,60.8,57.5,29.83,East,100,0.0,0.0,89,0.00,,,0.00,Wunderground v.1.15,2013-09-23 00:14:00,
2013-09-22 20:16:00,60.7,57.7,29.83,East,101,0.0,0.0,90,0.00,,,0.00,Wunderground v.1.15,2013-09-23 00:16:00,
2013-09-22 20:17:00,60.7,57.7,29.83,East,100,0.0,0.0,90,0.00,,,0.00,Wunderground v.1.15,2013-09-23 00:17:00,
2013-09-22 20:19:00,60.7,58.1,29.83,East,100,0.0,0.0,91,0.00,,,0.00,Wunderground v.1.15,2013-09-23 00:19:00,
2013-09-22 20:21:00,60.6,58.0,29.83,East,100,0.0,0.0,91,0.00,,,0.00,Wunderground v.1.15,2013-09-23 00:21:00,
2013-09-22 20:22:00,60.6,58.3,29.83,East,100,0.0,0.0,92,0.00,,,0.00,Wunderground v.1.15,2013-09-23 00:22:00,
2013-09-22 20:25:00,60.5,58.2,29.84,East,100,0.0,0.0,92,0.00,,,0.00,Wunderground v.1.15,2013-09-23 00:25:00,
2013-09-22 20:26:00,60.5,58.2,29.84,East,100,0.0,0.0,92,0.00,,,0.00,Wunderground v.1.15,2013-09-23 00:26:00,
2013-09-22 20:27:00,60.4,58.1,29.84,East,100,0.0,0.0,92,0.00,,,0.00,Wunderground v.1.15,2013-09-23 00:27:00,
2013-09-22 20:28:00,60.4,58.1,29.84,East,100,0.0,0.0,92,0.00,,,0.00,Wunderground v.1.15,2013-09-23 00:28:00,
2013-09-22 20:30:00,60.4,58.4,29.84,East,101,0.0,0.0,93,0.00,,,0.00,Wunderground v.1.15,2013-09-23 00:30:00,
2013-09-22 20:31:00,60.4,58.4,29.84,East,100,0.0,0.0,93,0.00,,,0.00,Wunderground v.1.15,2013-09-23 00:31:00,
2013-09-22 20:32:00,60.4,58.4,29.84,East,101,0.0,0.0,93,0.00,,,0.00,Wunderground v.1.15,2013-09-23 00:32:00,
2013-09-22 20:33:00,60.4,58.4,29.84,East,101,0.0,0.0,93,0.00,,,0.00,Wunderground v.1.15,2013-09-23 00:33:00,
2013-09-22 20:35:00,60.3,58.3,29.84,East,101,0.0,0.0,93,0.00,,,0.00,Wunderground v.1.15,2013-09-23 00:35:00,
2013-09-22 20:37:00,60.3,58.3,29.84,East,100,0.0,0.0,93,0.00,,,0.00,Wunderground v.1.15,2013-09-23 00:37:00,
2013-09-22 20:38:00,60.2,58.2,29.84,East,100,0.0,0.0,93,0.00,,,0.00,Wunderground v.1.15,2013-09-23 00:38:00,
2013-09-22 20:40:00,60.1,58.1,29.84,East,100,0.0,0.0,93,0.00,,,0.00,Wunderground v.1.15,2013-09-23 00:40:00,
2013-09-22 20:42:00,60.0,58.0,29.84,East,101,0.0,0.0,93,0.00,,,0.00,Wunderground v.1.15,2013-09-23 00:42:00,
2013-09-22 20:43:00,60.0,58.0,29.84,East,101,0.0,0.0,93,0.00,,,0.00,Wunderground v.1.15,2013-09-23 00:43:00,
2013-09-22 20:44:00,59.9,57.9,29.85,East,100,0.0,0.0,93,0.00,,,0.00,Wunderground v.1.15,2013-09-23 00:44:00,
2013-09-22 20:46:00,59.9,57.9,29.85,East,101,0.0,0.0,93,0.00,,,0.00,Wunderground v.1.15,2013-09-23 00:46:00,
2013-09-22 20:47:00,59.9,58.2,29.85,East,100,0.0,0.0,94,0.00,,,0.00,Wunderground v.1.15,2013-09-23 00:47:00,
2013-09-22 20:48:00,59.9,58.2,29.85,East,101,0.0,0.0,94,0.00,,,0.00,Wunderground v.1.15,2013-09-23 00:48:00,
2013-09-22 20:49:00,59.9,58.2,29.85,East,100,0.0,0.0,94,0.00,,,0.00,Wunderground v.1.15,2013-09-23 00:49:00,
2013-09-22 20:51:00,59.8,58.1,29.85,East,101,0.0,0.0,94,0.00,,,0.00,Wunderground v.1.15,2013-09-23 00:51:00,
2013-09-22 20:52:00,59.8,58.1,29.85,East,101,0.0,0.0,94,0.00,,,0.00,Wunderground v.1.15,2013-09-23 00:52:00,
2013-09-22 20:53:00,59.8,58.1,29.85,East,100,0.0,0.0,94,0.00,,,0.00,Wunderground v.1.15,2013-09-23 00:53:00,
2013-09-22 20:54:00,59.8,58.1,29.85,East,101,0.0,0.0,94,0.00,,,0.00,Wunderground v.1.15,2013-09-23 00:54:00,
2013-09-22 20:56:00,59.7,58.0,29.85,East,100,0.0,0.0,94,0.00,,,0.00,Wunderground v.1.15,2013-09-23 00:56:00,
2013-09-22 20:57:00,59.7,58.0,29.85,East,100,0.0,0.0,94,0.00,,,0.00,Wunderground v.1.15,2013-09-23 00:57:00,
2013-09-22 20:58:00,59.7,58.0,29.85,East,100,0.0,0.0,94,0.00,,,0.00,Wunderground v.1.15,2013-09-23 00:58:00,
2013-09-22 20:59:00,59.6,57.9,29.85,East,100,0.0,0.0,94,0.00,,,0.00,Wunderground v.1.15,2013-09-23 00:59:00,
2013-09-22 21:01:00,59.7,58.3,29.85,East,100,0.0,0.0,95,0.00,,,0.00,Wunderground v.1.15,2013-09-23 01:01:00,
2013-09-22 21:02:00,59.6,58.2,29.85,East,100,0.0,0.0,95,0.00,,,0.00,Wunderground v.1.15,2013-09-23 01:02:00,
2013-09-22 21:03:00,59.6,58.2,29.85,East,101,0.0,0.0,95,0.00,,,0.00,Wunderground v.1.15,2013-09-23 01:03:00,
2013-09-22 21:04:00,59.6,58.2,29.85,East,101,0.0,0.0,95,0.00,,,0.00,Wunderground v.1.15,2013-09-23 01:04:00,
2013-09-22 21:06:00,59.5,58.1,29.85,East,101,0.0,0.0,95,0.00,,,0.00,Wunderground v.1.15,2013-09-23 01:06:00,
2013-09-22 21:07:00,59.5,58.1,29.85,East,100,0.0,0.0,95,0.00,,,0.00,Wunderground v.1.15,2013-09-23 01:07:00,
2013-09-22 21:08:00,59.4,58.0,29.85,East,101,0.0,0.0,95,0.00,,,0.00,Wunderground v.1.15,2013-09-23 01:08:00,
2013-09-22 21:09:00,59.4,58.0,29.85,East,101,0.0,0.0,95,0.00,,,0.00,Wunderground v.1.15,2013-09-23 01:09:00,
2013-09-22 21:11:00,59.4,58.0,29.85,East,101,0.0,0.0,95,0.00,,,0.00,Wunderground v.1.15,2013-09-23 01:11:00,
2013-09-22 21:12:00,59.4,58.0,29.85,East,101,0.0,0.0,95,0.00,,,0.00,Wunderground v.1.15,2013-09-23 01:12:00,
2013-09-22 21:13:00,59.3,57.9,29.85,East,100,0.0,0.0,95,0.00,,,0.00,Wunderground v.1.15,2013-09-23 01:13:00,
2013-09-22 21:15:00,59.3,57.9,29.85,East,101,0.0,0.0,95,0.00,,,0.00,Wunderground v.1.15,2013-09-23 01:15:00,
2013-09-22 21:16:00,59.2,57.8,29.85,East,100,0.0,0.0,95,0.00,,,0.00,Wunderground v.1.15,2013-09-23 01:16:00,
2013-09-22 21:17:00,59.2,57.8,29.85,East,100,0.0,0.0,95,0.00,,,0.00,Wunderground v.1.15,2013-09-23 01:17:00,
2013-09-22 21:19:00,59.2,57.8,29.85,East,101,0.0,0.0,95,0.00,,,0.00,Wunderground v.1.15,2013-09-23 01:19:00,
2013-09-22 21:20:00,59.1,57.7,29.85,East,100,0.0,0.0,95,0.00,,,0.00,Wunderground v.1.15,2013-09-23 01:20:00,
2013-09-22 21:21:00,59.1,57.7,29.86,East,101,0.0,0.0,95,0.00,,,0.00,Wunderground v.1.15,2013-09-23 01:21:00,
2013-09-22 21:22:00,59.1,58.0,29.86,East,101,0.0,0.0,96,0.00,,,0.00,Wunderground v.1.15,2013-09-23 01:22:00,
2013-09-22 21:24:00,59.1,58.0,29.86,East,101,0.0,0.0,96,0.00,,,0.00,Wunderground v.1.15,2013-09-23 01:24:00,
2013-09-22 21:25:00,59.0,57.9,29.86,East,100,0.0,0.0,96,0.00,,,0.00,Wunderground v.1.15,2013-09-23 01:25:00,
2013-09-22 21:27:00,59.0,57.9,29.86,East,100,0.0,0.0,96,0.00,,,0.00,Wunderground v.1.15,2013-09-23 01:27:00,
2013-09-22 21:29:00,58.9,57.8,29.86,East,101,0.0,0.0,96,0.00,,,0.00,Wunderground v.1.15,2013-09-23 01:29:00,
2013-09-22 21:30:00,58.8,57.7,29.86,East,100,0.0,0.0,96,0.00,,,0.00,Wunderground v.1.15,2013-09-23 01:30:00,
2013-09-22 21:32:00,58.8,57.7,29.86,East,100,0.0,0.0,96,0.00,,,0.00,Wunderground v.1.15,2013-09-23 01:32:00,
2013-09-22 21:33:00,58.7,57.6,29.86,East,100,0.0,0.0,96,0.00,,,0.00,Wunderground v.1.15,2013-09-23 01:33:00,
2013-09-22 21:34:00,58.6,57.5,29.86,East,101,0.0,0.0,96,0.00,,,0.00,Wunderground v.1.15,2013-09-23 01:34:00,
2013-09-22 21:35:00,58.6,57.5,29.86,East,101,0.0,0.0,96,0.00,,,0.00,Wunderground v.1.15,2013-09-23 01:35:00,
2013-09-22 21:37:00,58.6,57.5,29.86,East,100,0.0,0.0,96,0.00,,,0.00,Wunderground v.1.15,2013-09-23 01:37:00,
2013-09-22 21:38:00,58.6,57.5,29.86,East,100,0.0,0.0,96,0.00,,,0.00,Wunderground v.1.15,2013-09-23 01:38:00,
2013-09-22 21:39:00,58.5,57.4,29.86,East,101,0.0,0.0,96,0.00,,,0.00,Wunderground v.1.15,2013-09-23 01:39:00,
2013-09-22 21:40:00,58.5,57.4,29.86,East,100,0.0,0.0,96,0.00,,,0.00,Wunderground v.1.15,2013-09-23 01:40:00,
2013-09-22 21:42:00,58.5,57.4,29.86,East,101,0.0,0.0,96,0.00,,,0.00,Wunderground v.1.15,2013-09-23 01:42:00,
2013-09-22 21:43:00,58.5,57.4,29.86,East,100,0.0,0.0,96,0.00,,,0.00,Wunderground v.1.15,2013-09-23 01:43:00,
2013-09-22 21:44:00,58.4,57.3,29.86,East,100,0.0,0.0,96,0.00,,,0.00,Wunderground v.1.15,2013-09-23 01:44:00,
2013-09-22 21:45:00,58.4,57.3,29.86,East,100,0.0,0.0,96,0.00,,,0.00,Wunderground v.1.15,2013-09-23 01:45:00,
2013-09-22 21:48:00,58.3,57.2,29.86,East,101,0.0,0.0,96,0.00,,,0.00,Wunderground v.1.15,2013-09-23 01:48:00,
2013-09-22 21:49:00,58.3,57.2,29.86,East,100,0.0,0.0,96,0.00,,,0.00,Wunderground v.1.15,2013-09-23 01:49:00,
2013-09-22 21:50:00,58.3,57.2,29.86,East,100,0.0,0.0,96,0.00,,,0.00,Wunderground v.1.15,2013-09-23 01:50:00,
2013-09-22 21:53:00,58.2,57.1,29.87,East,100,0.0,0.0,96,0.00,,,0.00,Wunderground v.1.15,2013-09-23 01:53:00,
2013-09-22 21:54:00,58.2,57.4,29.87,East,100,0.0,0.0,97,0.00,,,0.00,Wunderground v.1.15,2013-09-23 01:54:00,
2013-09-22 21:55:00,58.2,57.4,29.87,East,100,0.0,0.0,97,0.00,,,0.00,Wunderground v.1.15,2013-09-23 01:55:00,
2013-09-22 21:58:00,58.1,57.3,29.87,East,100,0.0,0.0,97,0.00,,,0.00,Wunderground v.1.15,2013-09-23 01:58:00,
2013-09-22 22:00:00,58.1,57.3,29.87,East,100,0.0,0.0,97,0.00,,,0.00,Wunderground v.1.15,2013-09-23 02:00:00,
2013-09-22 22:01:00,58.1,57.3,29.87,East,100,0.0,0.0,97,0.00,,,0.00,Wunderground v.1.15,2013-09-23 02:01:00,
2013-09-22 22:03:00,58.1,57.3,29.88,East,101,0.0,0.0,97,0.00,,,0.00,Wunderground v.1.15,2013-09-23 02:03:00,
2013-09-22 22:04:00,58.0,57.2,29.88,East,101,0.0,0.0,97,0.00,,,0.00,Wunderground v.1.15,2013-09-23 02:04:00,
2013-09-22 22:06:00,58.0,57.2,29.88,East,100,0.0,0.0,97,0.00,,,0.00,Wunderground v.1.15,2013-09-23 02:06:00,
2013-09-22 22:09:00,58.0,57.2,29.88,East,100,0.0,0.0,97,0.00,,,0.00,Wunderground v.1.15,2013-09-23 02:09:00,
2013-09-22 22:11:00,58.1,57.3,29.88,East,100,0.0,0.0,97,0.00,,,0.00,Wunderground v.1.15,2013-09-23 02:11:00,
2013-09-22 22:14:00,58.3,57.7,29.88,East,100,0.0,0.0,98,0.00,,,0.00,Wunderground v.1.15,2013-09-23 02:14:00,
2013-09-22 22:16:00,58.3,57.7,29.88,East,100,0.0,0.0,98,0.00,,,0.00,Wunderground v.1.15,2013-09-23 02:16:00,
2013-09-22 22:19:00,58.3,57.7,29.89,East,100,0.0,0.0,98,0.00,,,0.00,Wunderground v.1.15,2013-09-23 02:19:00,
2013-09-22 22:21:00,58.3,57.7,29.89,East,100,0.0,0.0,98,0.00,,,0.00,Wunderground v.1.15,2013-09-23 02:21:00,
2013-09-22 22:24:00,58.2,57.4,29.89,East,100,0.0,0.0,97,0.00,,,0.00,Wunderground v.1.15,2013-09-23 02:24:00,
2013-09-22 22:26:00,58.1,57.3,29.89,East,100,0.0,0.0,97,0.00,,,0.00,Wunderground v.1.15,2013-09-23 02:26:00,
2013-09-22 22:29:00,58.0,57.2,29.89,East,101,0.0,0.0,97,0.00,,,0.00,Wunderground v.1.15,2013-09-23 02:29:00,
2013-09-22 22:30:00,58.0,57.2,29.89,East,100,0.0,0.0,97,0.00,,,0.00,Wunderground v.1.15,2013-09-23 02:30:00,
2013-09-22 22:31:00,58.0,57.2,29.89,East,100,0.0,0.0,97,0.00,,,0.00,Wunderground v.1.15,2013-09-23 02:31:00,
2013-09-22 22:32:00,58.0,57.2,29.89,East,100,0.0,0.0,97,0.00,,,0.00,Wunderground v.1.15,2013-09-23 02:32:00,
2013-09-22 22:34:00,57.9,57.1,29.89,East,101,0.0,0.0,97,0.00,,,0.00,Wunderground v.1.15,2013-09-23 02:34:00,
2013-09-22 22:36:00,57.9,57.1,29.89,East,100,0.0,0.0,97,0.00,,,0.00,Wunderground v.1.15,2013-09-23 02:36:00,
2013-09-22 22:37:00,57.9,57.1,29.89,East,101,0.0,0.0,97,0.00,,,0.00,Wunderground v.1.15,2013-09-23 02:37:00,
2013-09-22 22:39:00,57.8,57.0,29.89,East,100,0.0,0.0,97,0.00,,,0.00,Wunderground v.1.15,2013-09-23 02:39:00,
2013-09-22 22:41:00,57.8,57.0,29.89,East,101,0.0,0.0,97,0.00,,,0.00,Wunderground v.1.15,2013-09-23 02:41:00,
2013-09-22 22:42:00,57.8,57.0,29.89,East,100,0.0,0.0,97,0.00,,,0.00,Wunderground v.1.15,2013-09-23 02:42:00,
2013-09-22 22:44:00,57.7,56.9,29.89,East,100,0.0,0.0,97,0.00,,,0.00,Wunderground v.1.15,2013-09-23 02:44:00,
2013-09-22 22:46:00,57.7,56.9,29.89,East,101,0.0,0.0,97,0.00,,,0.00,Wunderground v.1.15,2013-09-23 02:46:00,
2013-09-22 22:47:00,57.7,56.9,29.89,East,100,0.0,0.0,97,0.00,,,0.00,Wunderground v.1.15,2013-09-23 02:47:00,
2013-09-22 22:49:00,57.7,56.9,29.89,ESE,108,0.0,0.0,97,0.00,,,0.00,Wunderground v.1.15,2013-09-23 02:49:00,
2013-09-22 22:51:00,57.6,57.0,29.89,ESE,108,0.0,0.0,98,0.00,,,0.00,Wunderground v.1.15,2013-09-23 02:51:00,
2013-09-22 22:52:00,57.6,57.0,29.89,ESE,110,0.0,0.0,98,0.00,,,0.00,Wunderground v.1.15,2013-09-23 02:52:00,
2013-09-22 22:54:00,57.7,57.1,29.89,ESE,109,0.0,0.0,98,0.00,,,0.00,Wunderground v.1.15,2013-09-23 02:54:00,
2013-09-22 22:56:00,57.6,57.0,29.89,ESE,109,0.0,0.0,98,0.00,,,0.00,Wunderground v.1.15,2013-09-23 02:56:00,
2013-09-22 22:57:00,57.6,57.0,29.89,ESE,110,0.0,0.0,98,0.00,,,0.00,Wunderground v.1.15,2013-09-23 02:57:00,
2013-09-22 22:58:00,57.6,57.0,29.89,ESE,110,0.0,0.0,98,0.00,,,0.00,Wunderground v.1.15,2013-09-23 02:58:00,
2013-09-22 22:59:00,57.6,57.0,29.89,ESE,109,0.0,0.0,98,0.00,,,0.00,Wunderground v.1.15,2013-09-23 02:59:00,
2013-09-22 23:02:00,57.6,57.0,29.89,ESE,110,0.0,0.0,98,0.00,,,0.00,Wunderground v.1.15,2013-09-23 03:02:00,
2013-09-22 23:03:00,57.6,57.0,29.89,ESE,110,0.0,0.0,98,0.00,,,0.00,Wunderground v.1.15,2013-09-23 03:03:00,
2013-09-22 23:04:00,57.6,57.0,29.89,ESE,110,0.0,0.0,98,0.00,,,0.00,Wunderground v.1.15,2013-09-23 03:04:00,
2013-09-22 23:07:00,57.6,57.0,29.90,ESE,109,0.0,0.0,98,0.00,,,0.00,Wunderground v.1.15,2013-09-23 03:07:00,
2013-09-22 23:08:00,57.6,57.0,29.90,ESE,109,0.0,0.0,98,0.00,,,0.00,Wunderground v.1.15,2013-09-23 03:08:00,
2013-09-22 23:09:00,57.5,56.9,29.90,ESE,110,0.0,0.0,98,0.00,,,0.00,Wunderground v.1.15,2013-09-23 03:09:00,
2013-09-22 23:12:00,57.4,56.8,29.90,ESE,109,0.0,0.0,98,0.00,,,0.00,Wunderground v.1.15,2013-09-23 03:12:00,
2013-09-22 23:13:00,57.4,56.8,29.90,ESE,110,0.0,0.0,98,0.00,,,0.00,Wunderground v.1.15,2013-09-23 03:13:00,
2013-09-22 23:14:00,57.4,56.8,29.90,ESE,110,0.0,0.0,98,0.00,,,0.00,Wunderground v.1.15,2013-09-23 03:14:00,
2013-09-22 23:17:00,57.3,56.7,29.90,ESE,110,0.0,0.0,98,0.00,,,0.00,Wunderground v.1.15,2013-09-23 03:17:00,
2013-09-22 23:18:00,57.3,56.7,29.90,ESE,109,0.0,0.0,98,0.00,,,0.00,Wunderground v.1.15,2013-09-23 03:18:00,
2013-09-22 23:19:00,57.3,56.7,29.90,ESE,110,0.0,0.0,98,0.00,,,0.00,Wunderground v.1.15,2013-09-23 03:19:00,
2013-09-22 23:22:00,57.3,56.7,29.90,ESE,110,0.0,0.0,98,0.00,,,0.00,Wunderground v.1.15,2013-09-23 03:22:00,
2013-09-22 23:23:00,57.3,56.7,29.90,ESE,110,0.0,0.0,98,0.00,,,0.00,Wunderground v.1.15,2013-09-23 03:23:00,
2013-09-22 23:25:00,57.3,56.7,29.90,ESE,110,0.0,0.0,98,0.00,,,0.00,Wunderground v.1.15,2013-09-23 03:25:00,
2013-09-22 23:27:00,57.3,56.7,29.91,ESE,110,0.0,0.0,98,0.00,,,0.00,Wunderground v.1.15,2013-09-23 03:27:00,
2013-09-22 23:28:00,57.3,56.7,29.91,ESE,110,0.0,0.0,98,0.00,,,0.00,Wunderground v.1.15,2013-09-23 03:28:00,
2013-09-22 23:30:00,57.3,56.7,29.90,ESE,110,0.0,0.0,98,0.00,,,0.00,Wunderground v.1.15,2013-09-23 03:30:00,
2013-09-22 23:32:00,57.2,56.6,29.90,ESE,110,0.0,0.0,98,0.00,,,0.00,Wunderground v.1.15,2013-09-23 03:32:00,
2013-09-22 23:34:00,57.1,56.5,29.90,ESE,110,0.0,0.0,98,0.00,,,0.00,Wunderground v.1.15,2013-09-23 03:34:00,
2013-09-22 23:35:00,57.1,56.5,29.90,ESE,110,0.0,0.0,98,0.00,,,0.00,Wunderground v.1.15,2013-09-23 03:35:00,
2013-09-22 23:37:00,57.0,56.4,29.91,ESE,110,0.0,0.0,98,0.00,,,0.00,Wunderground v.1.15,2013-09-23 03:37:00,
2013-09-22 23:39:00,57.0,56.2,29.91,ESE,110,0.0,0.0,97,0.00,,,0.00,Wunderground v.1.15,2013-09-23 03:39:00,
2013-09-22 23:40:00,57.0,56.2,29.91,ESE,110,0.0,0.0,97,0.00,,,0.00,Wunderground v.1.15,2013-09-23 03:40:00,
2013-09-22 23:43:00,57.0,56.4,29.91,ESE,110,0.0,0.0,98,0.00,,,0.00,Wunderground v.1.15,2013-09-23 03:43:00,
2013-09-22 23:44:00,57.0,56.4,29.91,ESE,110,0.0,0.0,98,0.00,,,0.00,Wunderground v.1.15,2013-09-23 03:44:00,
2013-09-22 23:45:00,57.0,56.4,29.91,ESE,110,0.0,0.0,98,0.00,,,0.00,Wunderground v.1.15,2013-09-23 03:45:00,
2013-09-22 23:48:00,57.0,56.4,29.91,ESE,110,0.0,0.0,98,0.00,,,0.00,Wunderground v.1.15,2013-09-23 03:48:00,
2013-09-22 23:49:00,56.9,56.3,29.91,ESE,110,0.0,0.0,98,0.00,,,0.00,Wunderground v.1.15,2013-09-23 03:49:00,
2013-09-22 23:50:00,56.9,56.3,29.91,ESE,110,0.0,0.0,98,0.00,,,0.00,Wunderground v.1.15,2013-09-23 03:50:00,
2013-09-22 23:53:00,56.9,56.3,29.91,ESE,110,0.0,0.0,98,0.00,,,0.00,Wunderground v.1.15,2013-09-23 03:53:00,
2013-09-22 23:54:00,56.9,56.3,29.91,ESE,110,0.0,0.0,98,0.00,,,0.00,Wunderground v.1.15,2013-09-23 03:54:00,
2013-09-22 23:55:00,56.9,56.3,29.91,ESE,110,0.0,0.0,98,0.00,,,0.00,Wunderground v.1.15,2013-09-23 03:55:00,
2013-09-22 23:58:00,56.9,56.3,29.91,ESE,110,0.0,0.0,98,0.00,,,0.00,Wunderground v.1.15,2013-09-23 03:58:00,
2013-09-22 23:59:00,56.8,56.2,29.91,ESE,110,0.0,0.0,98,0.00,,,0.00,Wunderground v.1.15,2013-09-23 03:59:00,